Wetterdaten: Dienstag, 16.06.2015
Datum Zeit Temp. Aussen +5cm Feuchte Auss BlattFeu 1 Luftdruck Regen Sonnenschein Regendauer Solar Windben
16.06.2015 00:00 13,5 C 12,2 C 66 % 0 lf 1021,8 hPa 0,0 l/m 0 min 0 min 0 W/m 14,6 km/h (3 Bft)
16.06.2015 00:02 13,4 C 12,2 C 66 % 0 lf 1021,8 hPa 0,0 l/m 0 min 0 min 0 W/m 16,7 km/h (3 Bft)
16.06.2015 00:05 13,4 C 11,7 C 66 % 0 lf 1021,8 hPa 0,0 l/m 0 min 0 min 0 W/m 16,7 km/h (3 Bft)
16.06.2015 00:06 13,4 C 11,7 C 67 % 0 lf 1021,8 hPa 0,0 l/m 0 min 0 min 0 W/m 10,5 km/h (2 Bft)
16.06.2015 00:08 13,3 C 11,7 C 67 % 0 lf 1021,9 hPa 0,0 l/m 0 min 0 min 0 W/m 14,6 km/h (3 Bft)
16.06.2015 00:10 13,3 C 11,7 C 67 % 0 lf 1021,9 hPa 0,0 l/m 0 min 0 min 0 W/m 14,6 km/h (3 Bft)
16.06.2015 00:12 13,2 C 11,7 C 67 % 0 lf 1021,9 hPa 0,0 l/m 0 min 0 min 0 W/m 14,6 km/h (3 Bft)
16.06.2015 00:14 13,1 C 11,7 C 67 % 0 lf 1021,9 hPa 0,0 l/m 0 min 0 min 0 W/m 18,8 km/h (3 Bft)
16.06.2015 00:16 13,1 C 11,7 C 68 % 0 lf 1021,9 hPa 0,0 l/m 0 min 0 min 0 W/m 14,6 km/h (3 Bft)
16.06.2015 00:18 13,1 C 11,7 C 67 % 0 lf 1021,9 hPa 0,0 l/m 0 min 0 min 0 W/m 14,6 km/h (3 Bft)
16.06.2015 00:20 13,0 C 11,7 C 68 % 0 lf 1021,9 hPa 0,0 l/m 0 min 0 min 0 W/m 23,0 km/h (4 Bft)
16.06.2015 00:22 12,9 C 11,7 C 68 % 0 lf 1022,0 hPa 0,0 l/m 0 min 0 min 0 W/m 12,6 km/h (3 Bft)
16.06.2015 00:24 12,9 C 11,7 C 68 % 0 lf 1021,9 hPa 0,0 l/m 0 min 0 min 0 W/m 16,7 km/h (3 Bft)
16.06.2015 00:26 12,9 C 11,7 C 68 % 0 lf 1022,0 hPa 0,0 l/m 0 min 0 min 0 W/m 12,6 km/h (3 Bft)
16.06.2015 00:28 12,8 C 11,7 C 68 % 0 lf 1022,0 hPa 0,0 l/m 0 min 0 min 0 W/m 16,7 km/h (3 Bft)
16.06.2015 00:30 12,8 C 11,7 C 68 % 0 lf 1021,9 hPa 0,0 l/m 0 min 0 min 0 W/m 16,7 km/h (3 Bft)
16.06.2015 00:32 12,8 C 11,7 C 69 % 0 lf 1022,1 hPa 0,0 l/m 0 min 0 min 0 W/m 16,7 km/h (3 Bft)
16.06.2015 00:34 12,7 C 11,1 C 69 % 0 lf 1022,1 hPa 0,0 l/m 0 min 0 min 0 W/m 10,5 km/h (2 Bft)
16.06.2015 00:36 12,7 C 11,1 C 69 % 0 lf 1022,1 hPa 0,0 l/m 0 min 0 min 0 W/m 14,6 km/h (3 Bft)
16.06.2015 00:38 12,6 C 11,1 C 69 % 0 lf 1022,0 hPa 0,0 l/m 0 min 0 min 0 W/m 14,6 km/h (3 Bft)
16.06.2015 00:40 12,6 C 11,1 C 69 % 0 lf 1022,1 hPa 0,0 l/m 0 min 0 min 0 W/m 14,6 km/h (3 Bft)
16.06.2015 00:42 12,5 C 11,1 C 69 % 0 lf 1022,1 hPa 0,0 l/m 0 min 0 min 0 W/m 14,6 km/h (3 Bft)
16.06.2015 00:44 12,5 C 11,1 C 69 % 0 lf 1022,1 hPa 0,0 l/m 0 min 0 min 0 W/m 14,6 km/h (3 Bft)
16.06.2015 00:46 12,4 C 11,1 C 69 % 0 lf 1022,1 hPa 0,0 l/m 0 min 0 min 0 W/m 14,6 km/h (3 Bft)
16.06.2015 00:48 12,4 C 11,1 C 69 % 0 lf 1022,0 hPa 0,0 l/m 0 min 0 min 0 W/m 14,6 km/h (3 Bft)
16.06.2015 00:50 12,4 C 11,1 C 69 % 0 lf 1022,1 hPa 0,0 l/m 0 min 0 min 0 W/m 12,6 km/h (3 Bft)
16.06.2015 00:52 12,3 C 11,1 C 69 % 0 lf 1022,2 hPa 0,0 l/m 0 min 0 min 0 W/m 12,6 km/h (3 Bft)
16.06.2015 00:54 12,3 C 11,1 C 69 % 0 lf 1022,1 hPa 0,0 l/m 0 min 0 min 0 W/m 12,6 km/h (3 Bft)
16.06.2015 00:56 12,3 C 11,1 C 69 % 0 lf 1022,2 hPa 0,0 l/m 0 min 0 min 0 W/m 10,5 km/h (2 Bft)
16.06.2015 00:58 12,2 C 11,1 C 70 % 0 lf 1022,2 hPa 0,0 l/m 0 min 0 min 0 W/m 12,6 km/h (3 Bft)
16.06.2015 01:00 12,2 C 10,6 C 70 % 0 lf 1022,2 hPa 0,0 l/m 0 min 0 min 0 W/m 12,6 km/h (3 Bft)
16.06.2015 01:02 12,2 C 10,6 C 70 % 0 lf 1022,2 hPa 0,0 l/m 0 min 0 min 0 W/m 12,6 km/h (3 Bft)
16.06.2015 01:04 12,1 C 10,6 C 70 % 0 lf 1022,2 hPa 0,0 l/m 0 min 0 min 0 W/m 12,6 km/h (3 Bft)
16.06.2015 01:06 12,1 C 10,6 C 70 % 0 lf 1022,2 hPa 0,0 l/m 0 min 0 min 0 W/m 10,5 km/h (2 Bft)
16.06.2015 01:08 12,0 C 10,6 C 70 % 0 lf 1022,3 hPa 0,0 l/m 0 min 0 min 0 W/m 10,5 km/h (2 Bft)
16.06.2015 01:10 12,0 C 10,6 C 70 % 0 lf 1022,3 hPa 0,0 l/m 0 min 0 min 0 W/m 12,6 km/h (3 Bft)
16.06.2015 01:12 11,9 C 10,6 C 70 % 0 lf 1022,3 hPa 0,0 l/m 0 min 0 min 0 W/m 10,5 km/h (2 Bft)
16.06.2015 01:14 11,9 C 10,6 C 70 % 0 lf 1022,3 hPa 0,0 l/m 0 min 0 min 0 W/m 12,6 km/h (3 Bft)
16.06.2015 01:16 11,8 C 10,6 C 70 % 0 lf 1022,3 hPa 0,0 l/m 0 min 0 min 0 W/m 10,5 km/h (2 Bft)
16.06.2015 01:18 11,8 C 10,6 C 70 % 0 lf 1022,4 hPa 0,0 l/m 0 min 0 min 0 W/m 14,6 km/h (3 Bft)
16.06.2015 01:20 11,8 C 10,6 C 70 % 0 lf 1022,4 hPa 0,0 l/m 0 min 0 min 0 W/m 12,6 km/h (3 Bft)
16.06.2015 01:22 11,7 C 10,6 C 70 % 0 lf 1022,4 hPa 0,0 l/m 0 min 0 min 0 W/m 14,6 km/h (3 Bft)
16.06.2015 01:24 11,7 C 10,6 C 70 % 0 lf 1022,4 hPa 0,0 l/m 0 min 0 min 0 W/m 12,6 km/h (3 Bft)
16.06.2015 01:26 11,7 C 10,6 C 71 % 0 lf 1022,4 hPa 0,0 l/m 0 min 0 min 0 W/m 12,6 km/h (3 Bft)
16.06.2015 01:28 11,7 C 10,6 C 71 % 0 lf 1022,4 hPa 0,0 l/m 0 min 0 min 0 W/m 14,6 km/h (3 Bft)
16.06.2015 01:30 11,6 C 10,6 C 71 % 0 lf 1022,5 hPa 0,0 l/m 0 min 0 min 0 W/m 12,6 km/h (3 Bft)
16.06.2015 01:32 11,6 C 10,6 C 71 % 0 lf 1022,5 hPa 0,0 l/m 0 min 0 min 0 W/m 12,6 km/h (3 Bft)
16.06.2015 01:34 11,6 C 10,0 C 71 % 0 lf 1022,4 hPa 0,0 l/m 0 min 0 min 0 W/m 10,5 km/h (2 Bft)
16.06.2015 01:36 11,5 C 10,6 C 71 % 0 lf 1022,5 hPa 0,0 l/m 0 min 0 min 0 W/m 12,6 km/h (3 Bft)
16.06.2015 01:38 11,5 C 10,0 C 71 % 0 lf 1022,5 hPa 0,0 l/m 0 min 0 min 0 W/m 12,6 km/h (3 Bft)
16.06.2015 01:40 11,4 C 10,0 C 71 % 0 lf 1022,5 hPa 0,0 l/m 0 min 0 min 0 W/m 12,6 km/h (3 Bft)
16.06.2015 01:42 11,4 C 10,0 C 71 % 0 lf 1022,5 hPa 0,0 l/m 0 min 0 min 0 W/m 10,5 km/h (2 Bft)
16.06.2015 01:44 11,4 C 10,0 C 71 % 0 lf 1022,5 hPa 0,0 l/m 0 min 0 min 0 W/m 12,6 km/h (3 Bft)
16.06.2015 01:46 11,4 C 10,0 C 72 % 0 lf 1022,5 hPa 0,0 l/m 0 min 0 min 0 W/m 12,6 km/h (3 Bft)
16.06.2015 01:48 11,3 C 10,0 C 72 % 0 lf 1022,5 hPa 0,0 l/m 0 min 0 min 0 W/m 10,5 km/h (2 Bft)
16.06.2015 01:50 11,3 C 10,0 C 72 % 0 lf 1022,5 hPa 0,0 l/m 0 min 0 min 0 W/m 12,6 km/h (3 Bft)
16.06.2015 01:52 11,2 C 10,0 C 72 % 0 lf 1022,5 hPa 0,0 l/m 0 min 0 min 0 W/m 12,6 km/h (3 Bft)
16.06.2015 01:54 11,2 C 10,0 C 72 % 0 lf 1022,5 hPa 0,0 l/m 0 min 0 min 0 W/m 10,5 km/h (2 Bft)
16.06.2015 01:56 11,2 C 10,0 C 72 % 0 lf 1022,6 hPa 0,0 l/m 0 min 0 min 0 W/m 8,4 km/h (2 Bft)
16.06.2015 01:58 11,1 C 10,0 C 72 % 0 lf 1022,6 hPa 0,0 l/m 0 min 0 min 0 W/m 10,5 km/h (2 Bft)
16.06.2015 02:00 11,1 C 10,0 C 72 % 0 lf 1022,7 hPa 0,0 l/m 0 min 0 min 0 W/m 12,6 km/h (3 Bft)
16.06.2015 02:02 11,1 C 10,0 C 72 % 0 lf 1022,6 hPa 0,0 l/m 0 min 0 min 0 W/m 8,4 km/h (2 Bft)
16.06.2015 02:04 11,0 C 10,0 C 72 % 0 lf 1022,7 hPa 0,0 l/m 0 min 0 min 0 W/m 10,5 km/h (2 Bft)
16.06.2015 02:06 11,0 C 10,0 C 72 % 0 lf 1022,8 hPa 0,0 l/m 0 min 0 min 0 W/m 10,5 km/h (2 Bft)
16.06.2015 02:08 10,9 C 9,4 C 72 % 0 lf 1022,8 hPa 0,0 l/m 0 min 0 min 0 W/m 8,4 km/h (2 Bft)
16.06.2015 02:10 10,9 C 9,4 C 72 % 0 lf 1022,8 hPa 0,0 l/m 0 min 0 min 0 W/m 8,4 km/h (2 Bft)
16.06.2015 02:12 10,9 C 9,4 C 72 % 0 lf 1022,8 hPa 0,0 l/m 0 min 0 min 0 W/m 12,6 km/h (3 Bft)
16.06.2015 02:14 10,8 C 9,4 C 73 % 0 lf 1022,7 hPa 0,0 l/m 0 min 0 min 0 W/m 10,5 km/h (2 Bft)
16.06.2015 02:16 10,8 C 9,4 C 73 % 0 lf 1022,8 hPa 0,0 l/m 0 min 0 min 0 W/m 8,4 km/h (2 Bft)
16.06.2015 02:18 10,8 C 9,4 C 72 % 0 lf 1022,7 hPa 0,0 l/m 0 min 0 min 0 W/m 8,4 km/h (2 Bft)
16.06.2015 02:20 10,8 C 9,4 C 73 % 0 lf 1022,7 hPa 0,0 l/m 0 min 0 min 0 W/m 10,5 km/h (2 Bft)
16.06.2015 02:22 10,7 C 9,4 C 73 % 0 lf 1022,7 hPa 0,0 l/m 0 min 0 min 0 W/m 8,4 km/h (2 Bft)
16.06.2015 02:24 10,7 C 9,4 C 73 % 0 lf 1022,7 hPa 0,0 l/m 0 min 0 min 0 W/m 8,4 km/h (2 Bft)
16.06.2015 02:26 10,7 C 9,4 C 73 % 0 lf 1022,7 hPa 0,0 l/m 0 min 0 min 0 W/m 8,4 km/h (2 Bft)
16.06.2015 02:28 10,7 C 9,4 C 73 % 0 lf 1022,7 hPa 0,0 l/m 0 min 0 min 0 W/m 8,4 km/h (2 Bft)
16.06.2015 02:30 10,7 C 9,4 C 73 % 0 lf 1022,7 hPa 0,0 l/m 0 min 0 min 0 W/m 8,4 km/h (2 Bft)
16.06.2015 02:32 10,6 C 9,4 C 73 % 0 lf 1022,7 hPa 0,0 l/m 0 min 0 min 0 W/m 8,4 km/h (2 Bft)
16.06.2015 02:34 10,6 C 8,9 C 73 % 0 lf 1022,8 hPa 0,0 l/m 0 min 0 min 0 W/m 6,3 km/h (2 Bft)
16.06.2015 02:36 10,6 C 8,9 C 73 % 0 lf 1022,8 hPa 0,0 l/m 0 min 0 min 0 W/m 8,4 km/h (2 Bft)
16.06.2015 02:38 10,5 C 8,9 C 73 % 0 lf 1022,7 hPa 0,0 l/m 0 min 0 min 0 W/m 8,4 km/h (2 Bft)
16.06.2015 02:40 10,5 C 8,9 C 74 % 0 lf 1022,7 hPa 0,0 l/m 0 min 0 min 0 W/m 8,4 km/h (2 Bft)
16.06.2015 02:42 10,4 C 8,9 C 74 % 0 lf 1022,7 hPa 0,0 l/m 0 min 0 min 0 W/m 6,3 km/h (2 Bft)
16.06.2015 02:44 10,4 C 8,9 C 74 % 0 lf 1022,7 hPa 0,0 l/m 0 min 0 min 0 W/m 8,4 km/h (2 Bft)
16.06.2015 02:46 10,4 C 8,9 C 74 % 0 lf 1022,7 hPa 0,0 l/m 0 min 0 min 0 W/m 8,4 km/h (2 Bft)
16.06.2015 02:48 10,4 C 8,9 C 74 % 0 lf 1022,8 hPa 0,0 l/m 0 min 0 min 0 W/m 10,5 km/h (2 Bft)
16.06.2015 02:50 10,3 C 8,9 C 74 % 0 lf 1022,8 hPa 0,0 l/m 0 min 0 min 0 W/m 8,4 km/h (2 Bft)
16.06.2015 02:52 10,3 C 8,9 C 74 % 0 lf 1022,8 hPa 0,0 l/m 0 min 0 min 0 W/m 8,4 km/h (2 Bft)
16.06.2015 02:54 10,3 C 8,9 C 74 % 0 lf 1022,8 hPa 0,0 l/m 0 min 0 min 0 W/m 10,5 km/h (2 Bft)
16.06.2015 02:56 10,2 C 8,9 C 74 % 0 lf 1022,9 hPa 0,0 l/m 0 min 0 min 0 W/m 8,4 km/h (2 Bft)
16.06.2015 02:58 10,2 C 8,9 C 74 % 0 lf 1022,9 hPa 0,0 l/m 0 min 0 min 0 W/m 10,5 km/h (2 Bft)
16.06.2015 03:00 10,1 C 8,9 C 75 % 0 lf 1022,9 hPa 0,0 l/m 0 min 0 min 0 W/m 10,5 km/h (2 Bft)
16.06.2015 03:02 10,1 C 8,9 C 75 % 0 lf 1023,0 hPa 0,0 l/m 0 min 0 min 0 W/m 8,4 km/h (2 Bft)
16.06.2015 03:04 10,1 C 8,9 C 75 % 0 lf 1023,0 hPa 0,0 l/m 0 min 0 min 0 W/m 14,6 km/h (3 Bft)
16.06.2015 03:06 10,1 C 8,9 C 75 % 0 lf 1022,9 hPa 0,0 l/m 0 min 0 min 0 W/m 10,5 km/h (2 Bft)
16.06.2015 03:08 10,0 C 8,9 C 75 % 0 lf 1023,0 hPa 0,0 l/m 0 min 0 min 0 W/m 14,6 km/h (3 Bft)
16.06.2015 03:10 9,9 C 8,9 C 75 % 0 lf 1022,9 hPa 0,0 l/m 0 min 0 min 0 W/m 12,6 km/h (3 Bft)
16.06.2015 03:12 9,9 C 8,9 C 75 % 0 lf 1022,9 hPa 0,0 l/m 0 min 0 min 0 W/m 8,4 km/h (2 Bft)
16.06.2015 03:14 9,9 C 8,9 C 75 % 0 lf 1022,9 hPa 0,0 l/m 0 min 0 min 0 W/m 12,6 km/h (3 Bft)
16.06.2015 03:16 9,9 C 8,9 C 75 % 0 lf 1022,9 hPa 0,0 l/m 0 min 0 min 0 W/m 10,5 km/h (2 Bft)
16.06.2015 03:18 9,8 C 8,9 C 75 % 0 lf 1022,9 hPa 0,0 l/m 0 min 0 min 0 W/m 8,4 km/h (2 Bft)
16.06.2015 03:20 9,8 C 8,9 C 75 % 0 lf 1022,9 hPa 0,0 l/m 0 min 0 min 0 W/m 12,6 km/h (3 Bft)
16.06.2015 03:22 9,8 C 8,9 C 75 % 0 lf 1022,9 hPa 0,0 l/m 0 min 0 min 0 W/m 12,6 km/h (3 Bft)
16.06.2015 03:24 9,8 C 8,9 C 75 % 0 lf 1022,9 hPa 0,0 l/m 0 min 0 min 0 W/m 14,6 km/h (3 Bft)
16.06.2015 03:26 9,8 C 8,9 C 76 % 0 lf 1023,0 hPa 0,0 l/m 0 min 0 min 0 W/m 10,5 km/h (2 Bft)
16.06.2015 03:28 9,7 C 8,9 C 76 % 0 lf 1022,9 hPa 0,0 l/m 0 min 0 min 0 W/m 8,4 km/h (2 Bft)
16.06.2015 03:30 9,7 C 8,9 C 76 % 0 lf 1022,9 hPa 0,0 l/m 0 min 0 min 0 W/m 10,5 km/h (2 Bft)
16.06.2015 03:32 9,7 C 8,9 C 76 % 0 lf 1022,9 hPa 0,0 l/m 0 min 0 min 0 W/m 10,5 km/h (2 Bft)
16.06.2015 03:34 9,7 C 8,3 C 76 % 0 lf 1022,9 hPa 0,0 l/m 0 min 0 min 0 W/m 10,5 km/h (2 Bft)
16.06.2015 03:36 9,7 C 8,3 C 76 % 0 lf 1022,9 hPa 0,0 l/m 0 min 0 min 0 W/m 8,4 km/h (2 Bft)
16.06.2015 03:38 9,6 C 8,3 C 76 % 0 lf 1022,9 hPa 0,0 l/m 0 min 0 min 0 W/m 8,4 km/h (2 Bft)
16.06.2015 03:40 9,6 C 8,3 C 76 % 0 lf 1022,9 hPa 0,0 l/m 0 min 0 min 0 W/m 8,4 km/h (2 Bft)
16.06.2015 03:42 9,6 C 8,3 C 76 % 0 lf 1022,9 hPa 0,0 l/m 0 min 0 min 0 W/m 6,3 km/h (2 Bft)
16.06.2015 03:44 9,6 C 8,3 C 76 % 0 lf 1022,9 hPa 0,0 l/m 0 min 0 min 0 W/m 8,4 km/h (2 Bft)
16.06.2015 03:46 9,5 C 8,3 C 76 % 0 lf 1023,0 hPa 0,0 l/m 0 min 0 min 0 W/m 10,5 km/h (2 Bft)
16.06.2015 03:48 9,5 C 8,3 C 76 % 0 lf 1023,0 hPa 0,0 l/m 0 min 0 min 0 W/m 6,3 km/h (2 Bft)
16.06.2015 03:50 9,4 C 8,3 C 77 % 0 lf 1023,0 hPa 0,0 l/m 0 min 0 min 0 W/m 8,4 km/h (2 Bft)
16.06.2015 03:52 9,4 C 8,3 C 77 % 0 lf 1023,0 hPa 0,0 l/m 0 min 0 min 0 W/m 10,5 km/h (2 Bft)
16.06.2015 03:54 9,4 C 8,3 C 77 % 0 lf 1023,0 hPa 0,0 l/m 0 min 0 min 0 W/m 12,6 km/h (3 Bft)
16.06.2015 03:56 9,4 C 8,3 C 77 % 0 lf 1023,0 hPa 0,0 l/m 0 min 0 min 0 W/m 10,5 km/h (2 Bft)
16.06.2015 03:58 9,3 C 8,3 C 77 % 0 lf 1023,0 hPa 0,0 l/m 0 min 0 min 0 W/m 8,4 km/h (2 Bft)
16.06.2015 04:00 9,3 C 8,3 C 77 % 0 lf 1023,0 hPa 0,0 l/m 0 min 0 min 0 W/m 8,4 km/h (2 Bft)
16.06.2015 04:02 9,3 C 8,3 C 77 % 0 lf 1023,0 hPa 0,0 l/m 0 min 0 min 0 W/m 8,4 km/h (2 Bft)
16.06.2015 04:04 9,3 C 8,3 C 77 % 0 lf 1023,0 hPa 0,0 l/m 0 min 0 min 0 W/m 10,5 km/h (2 Bft)
16.06.2015 04:06 9,2 C 8,3 C 77 % 0 lf 1023,0 hPa 0,0 l/m 0 min 0 min 0 W/m 8,4 km/h (2 Bft)
16.06.2015 04:08 9,2 C 8,3 C 77 % 0 lf 1023,0 hPa 0,0 l/m 0 min 0 min 0 W/m 8,4 km/h (2 Bft)
16.06.2015 04:10 9,2 C 7,8 C 77 % 0 lf 1023,1 hPa 0,0 l/m 0 min 0 min 0 W/m 8,4 km/h (2 Bft)
16.06.2015 04:12 9,2 C 7,8 C 77 % 0 lf 1023,1 hPa 0,0 l/m 0 min 0 min 0 W/m 6,3 km/h (2 Bft)
16.06.2015 04:14 9,2 C 7,8 C 77 % 0 lf 1023,0 hPa 0,0 l/m 0 min 0 min 0 W/m 8,4 km/h (2 Bft)
16.06.2015 04:16 9,1 C 7,8 C 77 % 0 lf 1023,1 hPa 0,0 l/m 0 min 0 min 0 W/m 12,6 km/h (3 Bft)
16.06.2015 04:18 9,1 C 7,8 C 78 % 0 lf 1023,0 hPa 0,0 l/m 0 min 0 min 0 W/m 6,3 km/h (2 Bft)
16.06.2015 04:20 9,1 C 7,8 C 78 % 0 lf 1023,0 hPa 0,0 l/m 0 min 0 min 0 W/m 10,5 km/h (2 Bft)
16.06.2015 04:22 9,1 C 7,8 C 78 % 0 lf 1023,0 hPa 0,0 l/m 0 min 0 min 0 W/m 10,5 km/h (2 Bft)
16.06.2015 04:24 9,1 C 7,8 C 78 % 0 lf 1023,0 hPa 0,0 l/m 0 min 0 min 0 W/m 8,4 km/h (2 Bft)
16.06.2015 04:26 9,0 C 7,8 C 78 % 0 lf 1023,0 hPa 0,0 l/m 0 min 0 min 0 W/m 8,4 km/h (2 Bft)
16.06.2015 04:28 9,0 C 7,8 C 78 % 0 lf 1023,0 hPa 0,0 l/m 0 min 0 min 0 W/m 8,4 km/h (2 Bft)
16.06.2015 04:30 9,0 C 7,8 C 78 % 0 lf 1023,0 hPa 0,0 l/m 0 min 0 min 0 W/m 6,3 km/h (2 Bft)
16.06.2015 04:32 8,9 C 7,8 C 78 % 0 lf 1022,9 hPa 0,0 l/m 0 min 0 min 0 W/m 8,4 km/h (2 Bft)
16.06.2015 04:34 8,9 C 7,8 C 78 % 0 lf 1023,0 hPa 0,0 l/m 0 min 0 min 0 W/m 8,4 km/h (2 Bft)
16.06.2015 04:36 8,9 C 7,8 C 78 % 0 lf 1023,0 hPa 0,0 l/m 0 min 0 min 0 W/m 8,4 km/h (2 Bft)
16.06.2015 04:38 8,9 C 7,8 C 78 % 0 lf 1023,0 hPa 0,0 l/m 0 min 0 min 0 W/m 6,3 km/h (2 Bft)
16.06.2015 04:40 8,9 C 7,8 C 78 % 0 lf 1023,0 hPa 0,0 l/m 0 min 0 min 0 W/m 4,2 km/h (1 Bft)
16.06.2015 04:42 8,8 C 7,2 C 78 % 0 lf 1023,0 hPa 0,0 l/m 0 min 0 min 0 W/m 6,3 km/h (2 Bft)
16.06.2015 04:44 8,8 C 7,2 C 78 % 0 lf 1023,0 hPa 0,0 l/m 0 min 0 min 0 W/m 6,3 km/h (2 Bft)
16.06.2015 04:46 8,8 C 7,2 C 78 % 0 lf 1023,0 hPa 0,0 l/m 0 min 0 min 0 W/m 6,3 km/h (2 Bft)
16.06.2015 04:48 8,8 C 7,2 C 78 % 0 lf 1023,0 hPa 0,0 l/m 0 min 0 min 0 W/m 4,2 km/h (1 Bft)
16.06.2015 04:50 8,8 C 7,2 C 78 % 0 lf 1023,0 hPa 0,0 l/m 0 min 0 min 0 W/m 4,2 km/h (1 Bft)
16.06.2015 04:52 8,7 C 7,2 C 78 % 0 lf 1023,0 hPa 0,0 l/m 0 min 0 min 0 W/m 6,3 km/h (2 Bft)
16.06.2015 04:54 8,7 C 6,7 C 78 % 0 lf 1023,0 hPa 0,0 l/m 0 min 0 min 0 W/m 6,3 km/h (2 Bft)
16.06.2015 04:56 8,7 C 6,7 C 78 % 0 lf 1022,9 hPa 0,0 l/m 0 min 0 min 0 W/m 6,3 km/h (2 Bft)
16.06.2015 04:58 8,7 C 6,7 C 78 % 0 lf 1023,0 hPa 0,0 l/m 0 min 0 min 0 W/m 6,3 km/h (2 Bft)
16.06.2015 05:00 8,6 C 6,7 C 78 % 0 lf 1023,0 hPa 0,0 l/m 0 min 0 min 0 W/m 6,3 km/h (2 Bft)
16.06.2015 05:02 8,6 C 7,2 C 78 % 0 lf 1023,0 hPa 0,0 l/m 0 min 0 min 0 W/m 4,2 km/h (1 Bft)
16.06.2015 05:04 8,6 C 6,7 C 78 % 0 lf 1023,0 hPa 0,0 l/m 0 min 0 min 0 W/m 6,3 km/h (2 Bft)
16.06.2015 05:06 8,6 C 6,7 C 78 % 0 lf 1023,0 hPa 0,0 l/m 0 min 0 min 0 W/m 4,2 km/h (1 Bft)
16.06.2015 05:08 8,5 C 6,7 C 78 % 0 lf 1023,0 hPa 0,0 l/m 0 min 0 min 0 W/m 4,2 km/h (1 Bft)
16.06.2015 05:10 8,5 C 6,7 C 79 % 0 lf 1023,1 hPa 0,0 l/m 0 min 0 min 0 W/m 4,2 km/h (1 Bft)
16.06.2015 05:12 8,4 C 6,7 C 79 % 0 lf 1023,1 hPa 0,0 l/m 0 min 0 min 0 W/m 6,3 km/h (2 Bft)
16.06.2015 05:14 8,4 C 6,7 C 79 % 0 lf 1023,1 hPa 0,0 l/m 0 min 0 min 0 W/m 4,2 km/h (1 Bft)
16.06.2015 05:16 8,4 C 7,2 C 79 % 0 lf 1023,1 hPa 0,0 l/m 0 min 0 min 0 W/m 6,3 km/h (2 Bft)
16.06.2015 05:18 8,3 C 7,2 C 79 % 0 lf 1023,1 hPa 0,0 l/m 0 min 0 min 3 W/m 6,3 km/h (2 Bft)
16.06.2015 05:20 8,3 C 7,2 C 79 % 0 lf 1023,1 hPa 0,0 l/m 0 min 0 min 5 W/m 6,3 km/h (2 Bft)
16.06.2015 05:22 8,3 C 7,2 C 80 % 0 lf 1023,1 hPa 0,0 l/m 0 min 0 min 5 W/m 6,3 km/h (2 Bft)
16.06.2015 05:24 8,3 C 7,2 C 80 % 0 lf 1023,2 hPa 0,0 l/m 0 min 0 min 5 W/m 4,2 km/h (1 Bft)
16.06.2015 05:26 8,2 C 7,2 C 80 % 0 lf 1023,1 hPa 0,0 l/m 0 min 0 min 7 W/m 4,2 km/h (1 Bft)
16.06.2015 05:28 8,2 C 6,7 C 80 % 0 lf 1023,2 hPa 0,0 l/m 0 min 0 min 7 W/m 6,3 km/h (2 Bft)
16.06.2015 05:30 8,2 C 6,7 C 80 % 0 lf 1023,2 hPa 0,0 l/m 0 min 0 min 8 W/m 4,2 km/h (1 Bft)
16.06.2015 05:32 8,2 C 7,2 C 80 % 0 lf 1023,2 hPa 0,0 l/m 0 min 0 min 9 W/m 6,3 km/h (2 Bft)
16.06.2015 05:34 8,2 C 7,2 C 80 % 0 lf 1023,2 hPa 0,0 l/m 0 min 0 min 11 W/m 6,3 km/h (2 Bft)
16.06.2015 05:36 8,1 C 7,2 C 80 % 0 lf 1023,3 hPa 0,0 l/m 0 min 0 min 12 W/m 4,2 km/h (1 Bft)
16.06.2015 05:38 8,1 C 7,2 C 80 % 0 lf 1023,2 hPa 0,0 l/m 0 min 0 min 13 W/m 6,3 km/h (2 Bft)
16.06.2015 05:40 8,1 C 7,2 C 80 % 0 lf 1023,3 hPa 0,0 l/m 0 min 0 min 15 W/m 6,3 km/h (2 Bft)
16.06.2015 05:42 8,1 C 7,2 C 81 % 0 lf 1023,3 hPa 0,0 l/m 0 min 0 min 16 W/m 6,3 km/h (2 Bft)
16.06.2015 05:44 8,1 C 7,2 C 81 % 0 lf 1023,4 hPa 0,0 l/m 0 min 0 min 15 W/m 4,2 km/h (1 Bft)
16.06.2015 05:46 8,1 C 7,2 C 81 % 0 lf 1023,4 hPa 0,0 l/m 0 min 0 min 18 W/m 6,3 km/h (2 Bft)
16.06.2015 05:48 8,1 C 7,2 C 81 % 0 lf 1023,5 hPa 0,0 l/m 0 min 0 min 20 W/m 4,2 km/h (1 Bft)
16.06.2015 05:50 8,0 C 7,2 C 81 % 0 lf 1023,5 hPa 0,0 l/m 0 min 0 min 23 W/m 6,3 km/h (2 Bft)
16.06.2015 05:52 8,0 C 7,2 C 81 % 0 lf 1023,3 hPa 0,0 l/m 0 min 0 min 26 W/m 6,3 km/h (2 Bft)
16.06.2015 05:54 8,0 C 7,2 C 81 % 0 lf 1023,3 hPa 0,0 l/m 0 min 0 min 27 W/m 4,2 km/h (1 Bft)
16.06.2015 05:56 8,0 C 7,2 C 81 % 0 lf 1023,3 hPa 0,0 l/m 0 min 0 min 29 W/m 6,3 km/h (2 Bft)
16.06.2015 05:58 8,0 C 7,2 C 82 % 0 lf 1023,3 hPa 0,0 l/m 0 min 0 min 34 W/m 8,4 km/h (2 Bft)
16.06.2015 06:00 7,9 C 7,2 C 82 % 0 lf 1023,4 hPa 0,0 l/m 0 min 0 min 34 W/m 8,4 km/h (2 Bft)
16.06.2015 06:02 8,0 C 7,2 C 82 % 0 lf 1023,5 hPa 0,0 l/m 2 min 0 min 40 W/m 6,3 km/h (2 Bft)
16.06.2015 06:05 7,9 C 7,2 C 82 % 0 lf 1023,4 hPa 0,0 l/m 2 min 0 min 49 W/m 4,2 km/h (1 Bft)
16.06.2015 06:06 7,9 C 7,2 C 82 % 0 lf 1023,4 hPa 0,0 l/m 1 min 0 min 52 W/m 2,1 km/h (1 Bft)
16.06.2015 06:08 7,9 C 7,2 C 82 % 0 lf 1023,4 hPa 0,0 l/m 2 min 0 min 55 W/m 6,3 km/h (2 Bft)
16.06.2015 06:10 7,9 C 7,2 C 82 % 0 lf 1023,4 hPa 0,0 l/m 2 min 0 min 58 W/m 6,3 km/h (2 Bft)
16.06.2015 06:12 7,9 C 7,2 C 82 % 0 lf 1023,4 hPa 0,0 l/m 2 min 0 min 63 W/m 6,3 km/h (2 Bft)
16.06.2015 06:14 7,9 C 7,2 C 82 % 0 lf 1023,4 hPa 0,0 l/m 2 min 0 min 67 W/m 8,4 km/h (2 Bft)
16.06.2015 06:16 8,0 C 7,2 C 83 % 0 lf 1023,3 hPa 0,0 l/m 2 min 0 min 71 W/m 8,4 km/h (2 Bft)
16.06.2015 06:18 8,0 C 7,2 C 83 % 0 lf 1023,3 hPa 0,0 l/m 2 min 0 min 75 W/m 8,4 km/h (2 Bft)
16.06.2015 06:20 8,0 C 7,8 C 83 % 0 lf 1023,2 hPa 0,0 l/m 2 min 0 min 79 W/m 8,4 km/h (2 Bft)
16.06.2015 06:22 8,0 C 7,8 C 83 % 0 lf 1023,2 hPa 0,0 l/m 2 min 0 min 83 W/m 8,4 km/h (2 Bft)
16.06.2015 06:24 8,1 C 7,8 C 83 % 0 lf 1023,2 hPa 0,0 l/m 2 min 0 min 89 W/m 6,3 km/h (2 Bft)
16.06.2015 06:26 8,1 C 7,8 C 83 % 0 lf 1023,2 hPa 0,0 l/m 2 min 0 min 93 W/m 6,3 km/h (2 Bft)
16.06.2015 06:28 8,1 C 7,8 C 83 % 0 lf 1023,2 hPa 0,0 l/m 2 min 0 min 98 W/m 6,3 km/h (2 Bft)
16.06.2015 06:30 8,1 C 7,8 C 83 % 0 lf 1023,2 hPa 0,0 l/m 2 min 0 min 104 W/m 6,3 km/h (2 Bft)
16.06.2015 06:32 8,1 C 7,8 C 84 % 0 lf 1023,2 hPa 0,0 l/m 2 min 0 min 109 W/m 6,3 km/h (2 Bft)
16.06.2015 06:34 8,1 C 7,8 C 84 % 0 lf 1023,3 hPa 0,0 l/m 2 min 0 min 114 W/m 8,4 km/h (2 Bft)
16.06.2015 06:36 8,2 C 7,8 C 84 % 0 lf 1023,3 hPa 0,0 l/m 2 min 0 min 119 W/m 6,3 km/h (2 Bft)
16.06.2015 06:38 8,2 C 7,8 C 84 % 0 lf 1023,4 hPa 0,0 l/m 2 min 0 min 123 W/m 6,3 km/h (2 Bft)
16.06.2015 06:40 8,2 C 7,8 C 84 % 0 lf 1023,3 hPa 0,0 l/m 2 min 0 min 129 W/m 8,4 km/h (2 Bft)
16.06.2015 06:42 8,2 C 7,8 C 84 % 0 lf 1023,3 hPa 0,0 l/m 2 min 0 min 135 W/m 8,4 km/h (2 Bft)
16.06.2015 06:44 8,3 C 7,8 C 84 % 0 lf 1023,3 hPa 0,0 l/m 2 min 0 min 141 W/m 8,4 km/h (2 Bft)
16.06.2015 06:46 8,3 C 7,8 C 84 % 0 lf 1023,3 hPa 0,0 l/m 2 min 0 min 146 W/m 10,5 km/h (2 Bft)
16.06.2015 06:48 8,3 C 7,8 C 84 % 0 lf 1023,2 hPa 0,0 l/m 2 min 0 min 152 W/m 8,4 km/h (2 Bft)
16.06.2015 06:50 8,4 C 7,8 C 84 % 0 lf 1023,2 hPa 0,0 l/m 2 min 0 min 159 W/m 8,4 km/h (2 Bft)
16.06.2015 06:52 8,4 C 8,3 C 84 % 0 lf 1023,3 hPa 0,0 l/m 2 min 0 min 165 W/m 8,4 km/h (2 Bft)
16.06.2015 06:54 8,4 C 8,3 C 84 % 0 lf 1023,3 hPa 0,0 l/m 2 min 0 min 172 W/m 8,4 km/h (2 Bft)
16.06.2015 06:56 8,4 C 8,3 C 84 % 0 lf 1023,3 hPa 0,0 l/m 2 min 0 min 177 W/m 6,3 km/h (2 Bft)
16.06.2015 06:58 8,5 C 8,3 C 84 % 0 lf 1023,3 hPa 0,0 l/m 2 min 0 min 179 W/m 8,4 km/h (2 Bft)
16.06.2015 07:00 8,6 C 8,3 C 84 % 0 lf 1023,4 hPa 0,0 l/m 2 min 0 min 165 W/m 10,5 km/h (2 Bft)
16.06.2015 07:02 8,6 C 8,3 C 84 % 0 lf 1023,4 hPa 0,0 l/m 2 min 0 min 170 W/m 10,5 km/h (2 Bft)
16.06.2015 07:04 8,6 C 8,3 C 84 % 0 lf 1023,4 hPa 0,0 l/m 2 min 0 min 201 W/m 10,5 km/h (2 Bft)
16.06.2015 07:06 8,7 C 8,3 C 84 % 0 lf 1023,4 hPa 0,0 l/m 2 min 0 min 206 W/m 12,6 km/h (3 Bft)
16.06.2015 07:08 8,7 C 8,3 C 84 % 0 lf 1023,4 hPa 0,0 l/m 2 min 0 min 210 W/m 12,6 km/h (3 Bft)
16.06.2015 07:10 8,8 C 8,3 C 83 % 0 lf 1023,4 hPa 0,0 l/m 2 min 0 min 214 W/m 12,6 km/h (3 Bft)
16.06.2015 07:12 8,8 C 8,9 C 83 % 0 lf 1023,4 hPa 0,0 l/m 2 min 0 min 220 W/m 12,6 km/h (3 Bft)
16.06.2015 07:14 8,9 C 8,9 C 83 % 0 lf 1023,4 hPa 0,0 l/m 2 min 0 min 225 W/m 14,6 km/h (3 Bft)
16.06.2015 07:16 8,9 C 8,9 C 83 % 0 lf 1023,4 hPa 0,0 l/m 2 min 0 min 231 W/m 12,6 km/h (3 Bft)
16.06.2015 07:18 9,0 C 8,9 C 83 % 0 lf 1023,3 hPa 0,0 l/m 2 min 0 min 237 W/m 8,4 km/h (2 Bft)
16.06.2015 07:20 9,1 C 8,9 C 83 % 0 lf 1023,4 hPa 0,0 l/m 2 min 0 min 244 W/m 8,4 km/h (2 Bft)
16.06.2015 07:22 9,1 C 8,9 C 83 % 0 lf 1023,3 hPa 0,0 l/m 2 min 0 min 250 W/m 10,5 km/h (2 Bft)
16.06.2015 07:24 9,2 C 8,9 C 83 % 0 lf 1023,4 hPa 0,0 l/m 2 min 0 min 257 W/m 12,6 km/h (3 Bft)
16.06.2015 07:26 9,2 C 8,9 C 83 % 0 lf 1023,4 hPa 0,0 l/m 2 min 0 min 262 W/m 12,6 km/h (3 Bft)
16.06.2015 07:28 9,3 C 8,9 C 83 % 0 lf 1023,4 hPa 0,0 l/m 2 min 0 min 270 W/m 12,6 km/h (3 Bft)
16.06.2015 07:30 9,4 C 9,4 C 82 % 0 lf 1023,4 hPa 0,0 l/m 2 min 0 min 276 W/m 14,6 km/h (3 Bft)
16.06.2015 07:32 9,4 C 9,4 C 82 % 0 lf 1023,3 hPa 0,0 l/m 2 min 0 min 284 W/m 12,6 km/h (3 Bft)
16.06.2015 07:34 9,5 C 9,4 C 82 % 0 lf 1023,3 hPa 0,0 l/m 2 min 0 min 286 W/m 10,5 km/h (2 Bft)
16.06.2015 07:36 9,6 C 9,4 C 82 % 0 lf 1023,2 hPa 0,0 l/m 2 min 0 min 291 W/m 14,6 km/h (3 Bft)
16.06.2015 07:38 9,6 C 9,4 C 82 % 0 lf 1023,4 hPa 0,0 l/m 2 min 0 min 304 W/m 12,6 km/h (3 Bft)
16.06.2015 07:40 9,7 C 9,4 C 82 % 0 lf 1023,4 hPa 0,0 l/m 2 min 0 min 301 W/m 12,6 km/h (3 Bft)
16.06.2015 07:42 9,7 C 9,4 C 82 % 0 lf 1023,3 hPa 0,0 l/m 2 min 0 min 318 W/m 10,5 km/h (2 Bft)
16.06.2015 07:44 9,8 C 9,4 C 81 % 0 lf 1023,3 hPa 0,0 l/m 2 min 0 min 321 W/m 8,4 km/h (2 Bft)
16.06.2015 07:46 9,8 C 10,0 C 81 % 0 lf 1023,3 hPa 0,0 l/m 2 min 0 min 333 W/m 14,6 km/h (3 Bft)
16.06.2015 07:48 9,9 C 10,0 C 81 % 0 lf 1023,4 hPa 0,0 l/m 2 min 0 min 344 W/m 14,6 km/h (3 Bft)
16.06.2015 07:50 9,9 C 10,0 C 81 % 0 lf 1023,4 hPa 0,0 l/m 2 min 0 min 355 W/m 14,6 km/h (3 Bft)
16.06.2015 07:52 10,1 C 10,0 C 81 % 0 lf 1023,4 hPa 0,0 l/m 2 min 0 min 343 W/m 12,6 km/h (3 Bft)
16.06.2015 07:54 10,1 C 10,0 C 81 % 0 lf 1023,4 hPa 0,0 l/m 2 min 0 min 323 W/m 16,7 km/h (3 Bft)
16.06.2015 07:56 10,2 C 10,0 C 80 % 0 lf 1023,5 hPa 0,0 l/m 2 min 0 min 306 W/m 12,6 km/h (3 Bft)
16.06.2015 07:58 10,3 C 10,0 C 80 % 0 lf 1023,4 hPa 0,0 l/m 2 min 0 min 325 W/m 12,6 km/h (3 Bft)
16.06.2015 08:00 10,3 C 10,0 C 80 % 0 lf 1023,4 hPa 0,0 l/m 2 min 0 min 312 W/m 12,6 km/h (3 Bft)
16.06.2015 08:02 10,4 C 10,0 C 80 % 0 lf 1023,4 hPa 0,0 l/m 2 min 0 min 325 W/m 16,7 km/h (3 Bft)
16.06.2015 08:04 10,5 C 10,0 C 80 % 0 lf 1023,4 hPa 0,0 l/m 2 min 0 min 312 W/m 12,6 km/h (3 Bft)
16.06.2015 08:06 10,6 C 10,6 C 79 % 0 lf 1023,4 hPa 0,0 l/m 2 min 0 min 356 W/m 14,6 km/h (3 Bft)
16.06.2015 08:08 10,7 C 10,6 C 79 % 0 lf 1023,4 hPa 0,0 l/m 2 min 0 min 354 W/m 14,6 km/h (3 Bft)
16.06.2015 08:10 10,7 C 10,6 C 79 % 0 lf 1023,4 hPa 0,0 l/m 2 min 0 min 356 W/m 16,7 km/h (3 Bft)
16.06.2015 08:12 10,8 C 10,6 C 78 % 0 lf 1023,4 hPa 0,0 l/m 2 min 0 min 338 W/m 10,5 km/h (2 Bft)
16.06.2015 08:14 10,8 C 10,6 C 78 % 0 lf 1023,4 hPa 0,0 l/m 2 min 0 min 299 W/m 12,6 km/h (3 Bft)
16.06.2015 08:16 10,9 C 10,6 C 78 % 0 lf 1023,4 hPa 0,0 l/m 2 min 0 min 318 W/m 14,6 km/h (3 Bft)
16.06.2015 08:18 11,0 C 10,6 C 78 % 0 lf 1023,4 hPa 0,0 l/m 2 min 0 min 355 W/m 14,6 km/h (3 Bft)
16.06.2015 08:20 11,0 C 10,6 C 78 % 0 lf 1023,4 hPa 0,0 l/m 0 min 0 min 179 W/m 12,6 km/h (3 Bft)
16.06.2015 08:22 11,1 C 10,6 C 77 % 0 lf 1023,4 hPa 0,0 l/m 2 min 0 min 259 W/m 10,5 km/h (2 Bft)
16.06.2015 08:24 11,1 C 10,6 C 77 % 0 lf 1023,4 hPa 0,0 l/m 2 min 0 min 417 W/m 8,4 km/h (2 Bft)
16.06.2015 08:26 11,2 C 10,6 C 77 % 0 lf 1023,3 hPa 0,0 l/m 2 min 0 min 463 W/m 10,5 km/h (2 Bft)
16.06.2015 08:28 11,2 C 11,1 C 77 % 0 lf 1023,4 hPa 0,0 l/m 2 min 0 min 431 W/m 12,6 km/h (3 Bft)
16.06.2015 08:30 11,3 C 11,1 C 77 % 0 lf 1023,4 hPa 0,0 l/m 2 min 0 min 386 W/m 18,8 km/h (3 Bft)
16.06.2015 08:32 11,4 C 11,1 C 77 % 0 lf 1023,4 hPa 0,0 l/m 2 min 0 min 388 W/m 14,6 km/h (3 Bft)
16.06.2015 08:34 11,5 C 11,1 C 77 % 0 lf 1023,4 hPa 0,0 l/m 2 min 0 min 389 W/m 14,6 km/h (3 Bft)
16.06.2015 08:36 11,6 C 11,7 C 77 % 0 lf 1023,4 hPa 0,0 l/m 2 min 0 min 405 W/m 14,6 km/h (3 Bft)
16.06.2015 08:38 11,7 C 11,7 C 76 % 0 lf 1023,4 hPa 0,0 l/m 2 min 0 min 366 W/m 14,6 km/h (3 Bft)
16.06.2015 08:40 11,8 C 11,7 C 76 % 0 lf 1023,4 hPa 0,0 l/m 2 min 0 min 346 W/m 16,7 km/h (3 Bft)
16.06.2015 08:42 11,9 C 11,7 C 76 % 0 lf 1023,4 hPa 0,0 l/m 2 min 0 min 294 W/m 14,6 km/h (3 Bft)
16.06.2015 08:44 11,9 C 11,7 C 75 % 0 lf 1023,4 hPa 0,0 l/m 2 min 0 min 280 W/m 8,4 km/h (2 Bft)
16.06.2015 08:46 12,0 C 11,7 C 75 % 0 lf 1023,4 hPa 0,0 l/m 2 min 0 min 306 W/m 10,5 km/h (2 Bft)
16.06.2015 08:48 12,1 C 11,7 C 74 % 0 lf 1023,4 hPa 0,0 l/m 2 min 0 min 298 W/m 16,7 km/h (3 Bft)
16.06.2015 08:50 12,2 C 11,7 C 74 % 0 lf 1023,4 hPa 0,0 l/m 2 min 0 min 289 W/m 14,6 km/h (3 Bft)
16.06.2015 08:52 12,2 C 11,7 C 74 % 0 lf 1023,5 hPa 0,0 l/m 2 min 0 min 274 W/m 18,8 km/h (3 Bft)
16.06.2015 08:54 12,3 C 11,7 C 74 % 0 lf 1023,5 hPa 0,0 l/m 2 min 0 min 346 W/m 16,7 km/h (3 Bft)
16.06.2015 08:56 12,3 C 11,7 C 73 % 0 lf 1023,5 hPa 0,0 l/m 2 min 0 min 438 W/m 12,6 km/h (3 Bft)
16.06.2015 08:58 12,4 C 12,2 C 73 % 0 lf 1023,6 hPa 0,0 l/m 2 min 0 min 452 W/m 16,7 km/h (3 Bft)
16.06.2015 09:00 12,5 C 12,2 C 73 % 0 lf 1023,6 hPa 0,0 l/m 2 min 0 min 439 W/m 20,9 km/h (4 Bft)
16.06.2015 09:02 12,6 C 12,2 C 73 % 0 lf 1023,5 hPa 0,0 l/m 2 min 0 min 487 W/m 14,6 km/h (3 Bft)
16.06.2015 09:04 12,6 C 12,2 C 72 % 0 lf 1023,6 hPa 0,0 l/m 2 min 0 min 430 W/m 14,6 km/h (3 Bft)
16.06.2015 09:06 12,7 C 12,2 C 73 % 0 lf 1023,6 hPa 0,0 l/m 2 min 0 min 511 W/m 18,8 km/h (3 Bft)
16.06.2015 09:08 12,8 C 12,8 C 72 % 0 lf 1023,6 hPa 0,0 l/m 2 min 0 min 526 W/m 14,6 km/h (3 Bft)
16.06.2015 09:10 12,9 C 12,8 C 72 % 0 lf 1023,6 hPa 0,0 l/m 2 min 0 min 499 W/m 12,6 km/h (3 Bft)
16.06.2015 09:12 13,0 C 12,8 C 72 % 0 lf 1023,6 hPa 0,0 l/m 2 min 0 min 577 W/m 18,8 km/h (3 Bft)
16.06.2015 09:14 13,1 C 12,8 C 71 % 0 lf 1023,6 hPa 0,0 l/m 2 min 0 min 570 W/m 14,6 km/h (3 Bft)
16.06.2015 09:16 13,2 C 13,3 C 71 % 0 lf 1023,6 hPa 0,0 l/m 2 min 0 min 474 W/m 23,0 km/h (4 Bft)
16.06.2015 09:18 13,3 C 12,8 C 70 % 0 lf 1023,6 hPa 0,0 l/m 2 min 0 min 351 W/m 20,9 km/h (4 Bft)
16.06.2015 09:20 13,4 C 12,8 C 70 % 0 lf 1023,6 hPa 0,0 l/m 2 min 0 min 305 W/m 14,6 km/h (3 Bft)
16.06.2015 09:22 13,5 C 12,8 C 70 % 0 lf 1023,6 hPa 0,0 l/m 2 min 0 min 328 W/m 14,6 km/h (3 Bft)
16.06.2015 09:24 13,6 C 12,8 C 69 % 0 lf 1023,6 hPa 0,0 l/m 2 min 0 min 418 W/m 16,7 km/h (3 Bft)
16.06.2015 09:26 13,6 C 13,3 C 69 % 0 lf 1023,6 hPa 0,0 l/m 2 min 0 min 321 W/m 16,7 km/h (3 Bft)
16.06.2015 09:28 13,7 C 13,3 C 70 % 0 lf 1023,5 hPa 0,0 l/m 2 min 0 min 433 W/m 10,5 km/h (2 Bft)
16.06.2015 09:30 13,8 C 13,3 C 70 % 0 lf 1023,6 hPa 0,0 l/m 2 min 0 min 488 W/m 14,6 km/h (3 Bft)
16.06.2015 09:32 13,8 C 13,3 C 69 % 0 lf 1023,6 hPa 0,0 l/m 2 min 0 min 579 W/m 12,6 km/h (3 Bft)
16.06.2015 09:34 13,9 C 13,3 C 68 % 0 lf 1023,7 hPa 0,0 l/m 2 min 0 min 332 W/m 12,6 km/h (3 Bft)
16.06.2015 09:36 13,9 C 12,8 C 68 % 0 lf 1023,7 hPa 0,0 l/m 2 min 0 min 295 W/m 18,8 km/h (3 Bft)
16.06.2015 09:38 13,9 C 12,8 C 67 % 0 lf 1023,7 hPa 0,0 l/m 2 min 0 min 371 W/m 12,6 km/h (3 Bft)
16.06.2015 09:40 13,9 C 13,3 C 67 % 0 lf 1023,7 hPa 0,0 l/m 2 min 0 min 467 W/m 16,7 km/h (3 Bft)
16.06.2015 09:42 13,9 C 13,3 C 67 % 0 lf 1023,7 hPa 0,0 l/m 2 min 0 min 547 W/m 18,8 km/h (3 Bft)
16.06.2015 09:44 13,9 C 13,3 C 66 % 0 lf 1023,7 hPa 0,0 l/m 2 min 0 min 466 W/m 20,9 km/h (4 Bft)
16.06.2015 09:46 13,9 C 13,3 C 66 % 0 lf 1023,7 hPa 0,0 l/m 2 min 0 min 538 W/m 16,7 km/h (3 Bft)
16.06.2015 09:48 13,9 C 13,9 C 66 % 0 lf 1023,8 hPa 0,0 l/m 2 min 0 min 509 W/m 18,8 km/h (3 Bft)
16.06.2015 09:50 13,9 C 13,3 C 66 % 0 lf 1023,7 hPa 0,0 l/m 2 min 0 min 370 W/m 16,7 km/h (3 Bft)
16.06.2015 09:52 13,9 C 13,3 C 65 % 0 lf 1023,8 hPa 0,0 l/m 2 min 0 min 340 W/m 23,0 km/h (4 Bft)
16.06.2015 09:54 13,9 C 13,3 C 65 % 0 lf 1023,8 hPa 0,0 l/m 2 min 0 min 425 W/m 14,6 km/h (3 Bft)
16.06.2015 09:56 13,9 C 13,9 C 65 % 0 lf 1023,8 hPa 0,0 l/m 2 min 0 min 537 W/m 16,7 km/h (3 Bft)
16.06.2015 09:58 13,9 C 14,4 C 66 % 0 lf 1023,8 hPa 0,0 l/m 2 min 0 min 613 W/m 16,7 km/h (3 Bft)
16.06.2015 10:00 14,1 C 14,4 C 67 % 0 lf 1023,8 hPa 0,0 l/m 2 min 0 min 453 W/m 16,7 km/h (3 Bft)
16.06.2015 10:02 14,2 C 13,9 C 66 % 0 lf 1023,9 hPa 0,0 l/m 2 min 0 min 327 W/m 25,1 km/h (4 Bft)
16.06.2015 10:04 14,1 C 13,3 C 65 % 0 lf 1023,9 hPa 0,0 l/m 2 min 0 min 332 W/m 23,0 km/h (4 Bft)
16.06.2015 10:06 14,1 C 13,9 C 65 % 0 lf 1023,9 hPa 0,0 l/m 2 min 0 min 359 W/m 20,9 km/h (4 Bft)
16.06.2015 10:08 14,0 C 13,9 C 66 % 0 lf 1023,9 hPa 0,0 l/m 2 min 0 min 393 W/m 20,9 km/h (4 Bft)
16.06.2015 10:10 14,0 C 13,9 C 66 % 0 lf 1023,9 hPa 0,0 l/m 2 min 0 min 402 W/m 20,9 km/h (4 Bft)
16.06.2015 10:12 14,1 C 14,4 C 67 % 0 lf 1023,9 hPa 0,0 l/m 2 min 0 min 364 W/m 18,8 km/h (3 Bft)
16.06.2015 10:14 14,1 C 14,4 C 67 % 0 lf 1023,9 hPa 0,0 l/m 2 min 0 min 371 W/m 20,9 km/h (4 Bft)
16.06.2015 10:16 14,1 C 13,9 C 67 % 0 lf 1023,8 hPa 0,0 l/m 2 min 0 min 346 W/m 23,0 km/h (4 Bft)
16.06.2015 10:18 14,1 C 13,9 C 67 % 0 lf 1024,0 hPa 0,0 l/m 2 min 0 min 334 W/m 23,0 km/h (4 Bft)
16.06.2015 10:20 14,1 C 13,9 C 66 % 0 lf 1023,9 hPa 0,0 l/m 2 min 0 min 333 W/m 18,8 km/h (3 Bft)
16.06.2015 10:22 14,1 C 13,9 C 66 % 0 lf 1023,9 hPa 0,0 l/m 2 min 0 min 424 W/m 18,8 km/h (3 Bft)
16.06.2015 10:24 14,1 C 14,4 C 66 % 0 lf 1024,0 hPa 0,0 l/m 2 min 0 min 539 W/m 20,9 km/h (4 Bft)
16.06.2015 10:26 14,2 C 15,0 C 66 % 0 lf 1024,0 hPa 0,0 l/m 2 min 0 min 703 W/m 23,0 km/h (4 Bft)
16.06.2015 10:28 14,2 C 15,0 C 65 % 0 lf 1024,0 hPa 0,0 l/m 2 min 0 min 640 W/m 23,0 km/h (4 Bft)
16.06.2015 10:30 14,2 C 15,0 C 66 % 0 lf 1024,0 hPa 0,0 l/m 2 min 0 min 489 W/m 14,6 km/h (3 Bft)
16.06.2015 10:32 14,2 C 14,4 C 65 % 0 lf 1024,0 hPa 0,0 l/m 2 min 0 min 399 W/m 23,0 km/h (4 Bft)
16.06.2015 10:34 14,2 C 13,9 C 65 % 0 lf 1024,0 hPa 0,0 l/m 2 min 0 min 409 W/m 23,0 km/h (4 Bft)
16.06.2015 10:36 14,2 C 13,9 C 65 % 0 lf 1024,0 hPa 0,0 l/m 2 min 0 min 467 W/m 25,1 km/h (4 Bft)
16.06.2015 10:38 14,2 C 14,4 C 65 % 0 lf 1024,0 hPa 0,0 l/m 2 min 0 min 493 W/m 23,0 km/h (4 Bft)
16.06.2015 10:40 14,2 C 15,0 C 65 % 0 lf 1024,0 hPa 0,0 l/m 2 min 0 min 619 W/m 20,9 km/h (4 Bft)
16.06.2015 10:42 14,2 C 15,6 C 66 % 0 lf 1024,0 hPa 0,0 l/m 2 min 0 min 689 W/m 29,3 km/h (5 Bft)
16.06.2015 10:44 14,3 C 16,1 C 65 % 0 lf 1024,0 hPa 0,0 l/m 2 min 0 min 682 W/m 23,0 km/h (4 Bft)
16.06.2015 10:46 14,4 C 15,6 C 65 % 0 lf 1024,1 hPa 0,0 l/m 2 min 0 min 598 W/m 25,1 km/h (4 Bft)
16.06.2015 10:48 14,6 C 15,6 C 64 % 0 lf 1024,2 hPa 0,0 l/m 2 min 0 min 543 W/m 27,2 km/h (4 Bft)
16.06.2015 10:50 14,6 C 15,0 C 63 % 0 lf 1024,1 hPa 0,0 l/m 2 min 0 min 541 W/m 25,1 km/h (4 Bft)
16.06.2015 10:52 14,6 C 15,6 C 63 % 0 lf 1024,1 hPa 0,0 l/m 2 min 0 min 609 W/m 20,9 km/h (4 Bft)
16.06.2015 10:54 14,6 C 15,6 C 62 % 0 lf 1024,2 hPa 0,0 l/m 2 min 0 min 503 W/m 18,8 km/h (3 Bft)
16.06.2015 10:56 14,7 C 15,6 C 63 % 0 lf 1024,2 hPa 0,0 l/m 2 min 0 min 484 W/m 16,7 km/h (3 Bft)
16.06.2015 10:58 14,8 C 15,6 C 63 % 0 lf 1024,1 hPa 0,0 l/m 2 min 0 min 460 W/m 14,6 km/h (3 Bft)
16.06.2015 11:00 14,8 C 15,6 C 63 % 0 lf 1024,2 hPa 0,0 l/m 2 min 0 min 405 W/m 25,1 km/h (4 Bft)
16.06.2015 11:02 14,9 C 15,0 C 62 % 0 lf 1024,2 hPa 0,0 l/m 0 min 0 min 340 W/m 20,9 km/h (4 Bft)
16.06.2015 11:04 14,9 C 14,4 C 62 % 0 lf 1024,2 hPa 0,0 l/m 0 min 0 min 307 W/m 18,8 km/h (3 Bft)
16.06.2015 11:06 14,8 C 13,9 C 62 % 0 lf 1024,3 hPa 0,0 l/m 0 min 0 min 295 W/m 25,1 km/h (4 Bft)
16.06.2015 11:08 14,8 C 13,9 C 62 % 0 lf 1024,2 hPa 0,0 l/m 0 min 0 min 309 W/m 20,9 km/h (4 Bft)
16.06.2015 11:10 14,7 C 13,9 C 62 % 0 lf 1024,2 hPa 0,0 l/m 0 min 0 min 344 W/m 16,7 km/h (3 Bft)
16.06.2015 11:12 14,7 C 14,4 C 63 % 0 lf 1024,2 hPa 0,0 l/m 0 min 0 min 344 W/m 16,7 km/h (3 Bft)
16.06.2015 11:14 14,7 C 14,4 C 62 % 0 lf 1024,1 hPa 0,0 l/m 0 min 0 min 332 W/m 16,7 km/h (3 Bft)
16.06.2015 11:16 14,7 C 14,4 C 62 % 0 lf 1024,2 hPa 0,0 l/m 0 min 0 min 327 W/m 14,6 km/h (3 Bft)
16.06.2015 11:18 14,7 C 13,9 C 62 % 0 lf 1024,1 hPa 0,0 l/m 0 min 0 min 315 W/m 18,8 km/h (3 Bft)
16.06.2015 11:20 14,6 C 14,4 C 62 % 0 lf 1024,2 hPa 0,0 l/m 0 min 0 min 307 W/m 20,9 km/h (4 Bft)
16.06.2015 11:22 14,6 C 13,9 C 62 % 0 lf 1024,2 hPa 0,0 l/m 0 min 0 min 307 W/m 23,0 km/h (4 Bft)
16.06.2015 11:24 14,6 C 13,9 C 62 % 0 lf 1024,2 hPa 0,0 l/m 0 min 0 min 310 W/m 18,8 km/h (3 Bft)
16.06.2015 11:26 14,5 C 13,9 C 62 % 0 lf 1024,2 hPa 0,0 l/m 0 min 0 min 314 W/m 16,7 km/h (3 Bft)
16.06.2015 11:28 14,5 C 14,4 C 62 % 0 lf 1024,2 hPa 0,0 l/m 0 min 0 min 317 W/m 16,7 km/h (3 Bft)
16.06.2015 11:30 14,5 C 14,4 C 62 % 0 lf 1024,2 hPa 0,0 l/m 0 min 0 min 330 W/m 14,6 km/h (3 Bft)
16.06.2015 11:32 14,5 C 14,4 C 62 % 0 lf 1024,2 hPa 0,0 l/m 0 min 0 min 360 W/m 23,0 km/h (4 Bft)
16.06.2015 11:34 14,4 C 13,9 C 61 % 0 lf 1024,2 hPa 0,0 l/m 2 min 0 min 405 W/m 20,9 km/h (4 Bft)
16.06.2015 11:36 14,4 C 14,4 C 62 % 0 lf 1024,2 hPa 0,0 l/m 2 min 0 min 457 W/m 18,8 km/h (3 Bft)
16.06.2015 11:38 14,4 C 15,0 C 62 % 0 lf 1024,2 hPa 0,0 l/m 2 min 0 min 487 W/m 23,0 km/h (4 Bft)
16.06.2015 11:40 14,5 C 15,0 C 62 % 0 lf 1024,3 hPa 0,0 l/m 2 min 0 min 542 W/m 23,0 km/h (4 Bft)
16.06.2015 11:42 14,6 C 15,0 C 61 % 0 lf 1024,3 hPa 0,0 l/m 2 min 0 min 635 W/m 20,9 km/h (4 Bft)
16.06.2015 11:44 14,6 C 15,6 C 61 % 0 lf 1024,4 hPa 0,0 l/m 2 min 0 min 579 W/m 20,9 km/h (4 Bft)
16.06.2015 11:46 14,7 C 15,6 C 60 % 0 lf 1024,3 hPa 0,0 l/m 2 min 0 min 526 W/m 16,7 km/h (3 Bft)
16.06.2015 11:48 14,7 C 15,6 C 59 % 0 lf 1024,3 hPa 0,0 l/m 2 min 0 min 471 W/m 25,1 km/h (4 Bft)
16.06.2015 11:50 14,7 C 15,0 C 59 % 0 lf 1024,3 hPa 0,0 l/m 2 min 0 min 417 W/m 25,1 km/h (4 Bft)
16.06.2015 11:52 14,7 C 14,4 C 59 % 0 lf 1024,3 hPa 0,0 l/m 0 min 0 min 389 W/m 23,0 km/h (4 Bft)
16.06.2015 11:54 14,8 C 15,0 C 60 % 0 lf 1024,3 hPa 0,0 l/m 0 min 0 min 382 W/m 18,8 km/h (3 Bft)
16.06.2015 11:56 14,8 C 15,0 C 59 % 0 lf 1024,3 hPa 0,0 l/m 0 min 0 min 388 W/m 25,1 km/h (4 Bft)
16.06.2015 11:58 14,8 C 15,0 C 58 % 0 lf 1024,3 hPa 0,0 l/m 2 min 0 min 404 W/m 20,9 km/h (4 Bft)
16.06.2015 12:00 14,8 C 15,0 C 59 % 0 lf 1024,4 hPa 0,0 l/m 2 min 0 min 428 W/m 25,1 km/h (4 Bft)
16.06.2015 12:02 14,8 C 15,0 C 59 % 0 lf 1024,3 hPa 0,0 l/m 2 min 0 min 443 W/m 23,0 km/h (4 Bft)
16.06.2015 12:05 14,8 C 15,6 C 58 % 0 lf 1024,3 hPa 0,0 l/m 2 min 0 min 561 W/m 25,1 km/h (4 Bft)
16.06.2015 12:06 14,8 C 16,1 C 59 % 0 lf 1024,3 hPa 0,0 l/m 1 min 0 min 577 W/m 25,1 km/h (4 Bft)
16.06.2015 12:08 14,9 C 16,7 C 59 % 0 lf 1024,4 hPa 0,0 l/m 2 min 0 min 723 W/m 25,1 km/h (4 Bft)
16.06.2015 12:10 15,0 C 17,2 C 59 % 0 lf 1024,3 hPa 0,0 l/m 2 min 0 min 744 W/m 27,2 km/h (4 Bft)
16.06.2015 12:12 15,1 C 17,2 C 58 % 0 lf 1024,5 hPa 0,0 l/m 2 min 0 min 678 W/m 27,2 km/h (4 Bft)
16.06.2015 12:14 15,1 C 16,7 C 58 % 0 lf 1024,3 hPa 0,0 l/m 2 min 0 min 532 W/m 14,6 km/h (3 Bft)
16.06.2015 12:16 15,2 C 16,1 C 59 % 0 lf 1024,4 hPa 0,0 l/m 0 min 0 min 382 W/m 27,2 km/h (4 Bft)
16.06.2015 12:18 15,2 C 15,6 C 58 % 0 lf 1024,3 hPa 0,0 l/m 0 min 0 min 319 W/m 25,1 km/h (4 Bft)
16.06.2015 12:20 15,2 C 15,0 C 58 % 0 lf 1024,3 hPa 0,0 l/m 0 min 0 min 279 W/m 23,0 km/h (4 Bft)
16.06.2015 12:22 15,2 C 15,0 C 58 % 0 lf 1024,4 hPa 0,0 l/m 0 min 0 min 261 W/m 23,0 km/h (4 Bft)
16.06.2015 12:24 15,1 C 14,4 C 57 % 0 lf 1024,4 hPa 0,0 l/m 0 min 0 min 256 W/m 25,1 km/h (4 Bft)
16.06.2015 12:26 15,0 C 14,4 C 57 % 0 lf 1024,4 hPa 0,0 l/m 0 min 0 min 252 W/m 27,2 km/h (4 Bft)
16.06.2015 12:28 14,9 C 13,9 C 58 % 0 lf 1024,3 hPa 0,0 l/m 0 min 0 min 246 W/m 18,8 km/h (3 Bft)
16.06.2015 12:30 14,9 C 13,9 C 58 % 0 lf 1024,4 hPa 0,0 l/m 0 min 0 min 241 W/m 16,7 km/h (3 Bft)
16.06.2015 12:32 14,8 C 14,4 C 59 % 0 lf 1024,3 hPa 0,0 l/m 0 min 0 min 241 W/m 25,1 km/h (4 Bft)
16.06.2015 12:34 14,8 C 14,4 C 59 % 0 lf 1024,4 hPa 0,0 l/m 0 min 0 min 246 W/m 27,2 km/h (4 Bft)
16.06.2015 12:36 14,8 C 14,4 C 59 % 0 lf 1024,3 hPa 0,0 l/m 0 min 0 min 260 W/m 20,9 km/h (4 Bft)
16.06.2015 12:38 14,7 C 13,9 C 58 % 0 lf 1024,5 hPa 0,0 l/m 0 min 0 min 277 W/m 18,8 km/h (3 Bft)
16.06.2015 12:40 14,7 C 13,9 C 58 % 0 lf 1024,4 hPa 0,0 l/m 0 min 0 min 291 W/m 20,9 km/h (4 Bft)
16.06.2015 12:42 14,6 C 13,9 C 58 % 0 lf 1024,5 hPa 0,0 l/m 0 min 0 min 297 W/m 23,0 km/h (4 Bft)
16.06.2015 12:44 14,5 C 13,9 C 59 % 0 lf 1024,4 hPa 0,0 l/m 0 min 0 min 276 W/m 16,7 km/h (3 Bft)
16.06.2015 12:46 14,5 C 14,4 C 59 % 0 lf 1024,4 hPa 0,0 l/m 0 min 0 min 263 W/m 16,7 km/h (3 Bft)
16.06.2015 12:48 14,5 C 14,4 C 59 % 0 lf 1024,5 hPa 0,0 l/m 0 min 0 min 273 W/m 25,1 km/h (4 Bft)
16.06.2015 12:50 14,5 C 14,4 C 59 % 0 lf 1024,5 hPa 0,0 l/m 0 min 0 min 308 W/m 23,0 km/h (4 Bft)
16.06.2015 12:52 14,5 C 14,4 C 59 % 0 lf 1024,5 hPa 0,0 l/m 0 min 0 min 360 W/m 18,8 km/h (3 Bft)
16.06.2015 12:54 14,5 C 14,4 C 58 % 0 lf 1024,4 hPa 0,0 l/m 0 min 0 min 409 W/m 18,8 km/h (3 Bft)
16.06.2015 12:56 14,5 C 15,0 C 59 % 0 lf 1024,4 hPa 0,0 l/m 2 min 0 min 431 W/m 20,9 km/h (4 Bft)
16.06.2015 12:58 14,6 C 15,0 C 59 % 0 lf 1024,6 hPa 0,0 l/m 0 min 0 min 410 W/m 20,9 km/h (4 Bft)
16.06.2015 13:00 14,6 C 14,4 C 59 % 0 lf 1024,5 hPa 0,0 l/m 0 min 0 min 381 W/m 25,1 km/h (4 Bft)
16.06.2015 13:02 14,6 C 14,4 C 58 % 0 lf 1024,4 hPa 0,0 l/m 0 min 0 min 352 W/m 14,6 km/h (3 Bft)
16.06.2015 13:04 14,6 C 14,4 C 59 % 0 lf 1024,5 hPa 0,0 l/m 0 min 0 min 326 W/m 18,8 km/h (3 Bft)
16.06.2015 13:06 14,6 C 14,4 C 60 % 1 lf 1024,5 hPa 0,0 l/m 0 min 0 min 280 W/m 20,9 km/h (4 Bft)
16.06.2015 13:08 14,6 C 13,9 C 59 % 0 lf 1024,5 hPa 0,0 l/m 0 min 0 min 251 W/m 20,9 km/h (4 Bft)
16.06.2015 13:10 14,6 C 13,9 C 59 % 2 lf 1024,6 hPa 0,0 l/m 0 min 0 min 242 W/m 18,8 km/h (3 Bft)
16.06.2015 13:12 14,6 C 13,9 C 59 % 3 lf 1024,5 hPa 0,0 l/m 0 min 0 min 250 W/m 25,1 km/h (4 Bft)
16.06.2015 13:14 14,6 C 13,9 C 60 % 3 lf 1024,6 hPa 0,0 l/m 0 min 0 min 266 W/m 23,0 km/h (4 Bft)
16.06.2015 13:16 14,5 C 14,4 C 60 % 0 lf 1024,5 hPa 0,0 l/m 0 min 0 min 293 W/m 18,8 km/h (3 Bft)
16.06.2015 13:18 14,6 C 14,4 C 60 % 4 lf 1024,6 hPa 0,0 l/m 0 min 0 min 304 W/m 18,8 km/h (3 Bft)
16.06.2015 13:20 14,6 C 14,4 C 60 % 2 lf 1024,6 hPa 0,0 l/m 0 min 0 min 309 W/m 20,9 km/h (4 Bft)
16.06.2015 13:22 14,6 C 14,4 C 60 % 0 lf 1024,5 hPa 0,0 l/m 0 min 0 min 309 W/m 18,8 km/h (3 Bft)
16.06.2015 13:24 14,6 C 14,4 C 60 % 2 lf 1024,7 hPa 0,0 l/m 0 min 0 min 304 W/m 20,9 km/h (4 Bft)
16.06.2015 13:26 14,7 C 14,4 C 60 % 3 lf 1024,7 hPa 0,0 l/m 0 min 0 min 292 W/m 25,1 km/h (4 Bft)
16.06.2015 13:28 14,7 C 14,4 C 59 % 0 lf 1024,5 hPa 0,0 l/m 0 min 0 min 290 W/m 16,7 km/h (3 Bft)
16.06.2015 13:30 14,7 C 15,0 C 59 % 1 lf 1024,5 hPa 0,0 l/m 0 min 0 min 299 W/m 16,7 km/h (3 Bft)
16.06.2015 13:32 14,7 C 15,0 C 60 % 0 lf 1024,5 hPa 0,0 l/m 0 min 0 min 304 W/m 20,9 km/h (4 Bft)
16.06.2015 13:34 14,8 C 14,4 C 60 % 0 lf 1024,6 hPa 0,0 l/m 0 min 0 min 301 W/m 20,9 km/h (4 Bft)
16.06.2015 13:36 14,8 C 14,4 C 59 % 0 lf 1024,5 hPa 0,0 l/m 0 min 0 min 285 W/m 20,9 km/h (4 Bft)
16.06.2015 13:38 14,8 C 14,4 C 59 % 0 lf 1024,6 hPa 0,0 l/m 0 min 0 min 279 W/m 18,8 km/h (3 Bft)
16.06.2015 13:40 14,8 C 14,4 C 59 % 0 lf 1024,6 hPa 0,0 l/m 0 min 0 min 283 W/m 18,8 km/h (3 Bft)
16.06.2015 13:42 14,8 C 14,4 C 59 % 0 lf 1024,5 hPa 0,0 l/m 0 min 0 min 296 W/m 23,0 km/h (4 Bft)
16.06.2015 13:44 14,8 C 14,4 C 59 % 0 lf 1024,5 hPa 0,0 l/m 0 min 0 min 322 W/m 23,0 km/h (4 Bft)
16.06.2015 13:46 14,8 C 15,0 C 59 % 0 lf 1024,5 hPa 0,0 l/m 0 min 0 min 350 W/m 16,7 km/h (3 Bft)
16.06.2015 13:48 14,8 C 15,0 C 59 % 2 lf 1024,4 hPa 0,0 l/m 0 min 0 min 380 W/m 18,8 km/h (3 Bft)
16.06.2015 13:50 14,9 C 15,6 C 60 % 0 lf 1024,4 hPa 0,0 l/m 0 min 0 min 419 W/m 23,0 km/h (4 Bft)
16.06.2015 13:52 14,9 C 15,6 C 60 % 0 lf 1024,4 hPa 0,0 l/m 0 min 0 min 413 W/m 20,9 km/h (4 Bft)
16.06.2015 13:54 15,0 C 15,6 C 59 % 0 lf 1024,3 hPa 0,0 l/m 0 min 0 min 385 W/m 16,7 km/h (3 Bft)
16.06.2015 13:56 15,1 C 16,1 C 61 % 0 lf 1024,4 hPa 0,0 l/m 0 min 0 min 379 W/m 20,9 km/h (4 Bft)
16.06.2015 13:58 15,2 C 16,1 C 59 % 0 lf 1024,5 hPa 0,0 l/m 0 min 0 min 379 W/m 23,0 km/h (4 Bft)
16.06.2015 14:00 15,3 C 15,6 C 59 % 0 lf 1024,4 hPa 0,0 l/m 0 min 0 min 369 W/m 16,7 km/h (3 Bft)
16.06.2015 14:02 15,3 C 15,6 C 59 % 0 lf 1024,5 hPa 0,0 l/m 0 min 0 min 360 W/m 18,8 km/h (3 Bft)
16.06.2015 14:04 15,4 C 15,6 C 59 % 0 lf 1024,4 hPa 0,0 l/m 0 min 0 min 363 W/m 29,3 km/h (5 Bft)
16.06.2015 14:06 15,4 C 15,0 C 58 % 0 lf 1024,4 hPa 0,0 l/m 0 min 0 min 370 W/m 23,0 km/h (4 Bft)
16.06.2015 14:08 15,4 C 15,0 C 58 % 0 lf 1024,4 hPa 0,0 l/m 0 min 0 min 345 W/m 20,9 km/h (4 Bft)
16.06.2015 14:10 15,3 C 15,0 C 59 % 0 lf 1024,4 hPa 0,0 l/m 0 min 0 min 314 W/m 14,6 km/h (3 Bft)
16.06.2015 14:12 15,3 C 15,0 C 59 % 0 lf 1024,5 hPa 0,0 l/m 0 min 0 min 300 W/m 16,7 km/h (3 Bft)
16.06.2015 14:14 15,4 C 15,0 C 59 % 0 lf 1024,4 hPa 0,0 l/m 0 min 0 min 296 W/m 14,6 km/h (3 Bft)
16.06.2015 14:16 15,4 C 15,0 C 58 % 0 lf 1024,5 hPa 0,0 l/m 0 min 0 min 300 W/m 29,3 km/h (5 Bft)
16.06.2015 14:18 15,3 C 15,0 C 58 % 0 lf 1024,4 hPa 0,0 l/m 0 min 0 min 321 W/m 29,3 km/h (5 Bft)
16.06.2015 14:20 15,3 C 15,0 C 58 % 0 lf 1024,3 hPa 0,0 l/m 0 min 0 min 358 W/m 27,2 km/h (4 Bft)
16.06.2015 14:22 15,3 C 15,0 C 58 % 0 lf 1024,3 hPa 0,0 l/m 0 min 0 min 385 W/m 18,8 km/h (3 Bft)
16.06.2015 14:24 15,3 C 15,6 C 58 % 0 lf 1024,3 hPa 0,0 l/m 0 min 0 min 405 W/m 23,0 km/h (4 Bft)
16.06.2015 14:26 15,3 C 16,1 C 59 % 0 lf 1024,3 hPa 0,0 l/m 2 min 0 min 434 W/m 14,6 km/h (3 Bft)
16.06.2015 14:28 15,4 C 16,1 C 59 % 0 lf 1024,3 hPa 0,0 l/m 2 min 0 min 471 W/m 25,1 km/h (4 Bft)
16.06.2015 14:30 15,5 C 16,1 C 59 % 0 lf 1024,2 hPa 0,0 l/m 2 min 0 min 488 W/m 25,1 km/h (4 Bft)
16.06.2015 14:32 15,6 C 16,7 C 59 % 0 lf 1024,2 hPa 0,0 l/m 2 min 0 min 473 W/m 23,0 km/h (4 Bft)
16.06.2015 14:34 15,6 C 16,1 C 58 % 0 lf 1024,2 hPa 0,0 l/m 2 min 0 min 433 W/m 25,1 km/h (4 Bft)
16.06.2015 14:36 15,7 C 16,1 C 58 % 0 lf 1024,3 hPa 0,0 l/m 0 min 0 min 413 W/m 20,9 km/h (4 Bft)
16.06.2015 14:38 15,7 C 16,1 C 58 % 0 lf 1024,2 hPa 0,0 l/m 2 min 0 min 422 W/m 18,8 km/h (3 Bft)
16.06.2015 14:40 15,8 C 16,1 C 58 % 0 lf 1024,2 hPa 0,0 l/m 2 min 0 min 425 W/m 18,8 km/h (3 Bft)
16.06.2015 14:42 15,8 C 16,1 C 58 % 0 lf 1024,2 hPa 0,0 l/m 2 min 0 min 432 W/m 20,9 km/h (4 Bft)
16.06.2015 14:44 15,9 C 16,7 C 58 % 0 lf 1024,2 hPa 0,0 l/m 2 min 0 min 486 W/m 20,9 km/h (4 Bft)
16.06.2015 14:46 16,0 C 17,2 C 58 % 0 lf 1024,2 hPa 0,0 l/m 2 min 0 min 598 W/m 14,6 km/h (3 Bft)
16.06.2015 14:48 16,1 C 17,2 C 58 % 0 lf 1024,3 hPa 0,0 l/m 2 min 0 min 644 W/m 23,0 km/h (4 Bft)
16.06.2015 14:50 16,2 C 17,2 C 56 % 0 lf 1024,2 hPa 0,0 l/m 2 min 0 min 692 W/m 18,8 km/h (3 Bft)
16.06.2015 14:52 16,3 C 17,2 C 57 % 0 lf 1024,2 hPa 0,0 l/m 2 min 0 min 644 W/m 20,9 km/h (4 Bft)
16.06.2015 14:54 16,4 C 17,8 C 57 % 0 lf 1024,1 hPa 0,0 l/m 2 min 0 min 626 W/m 18,8 km/h (3 Bft)
16.06.2015 14:56 16,6 C 17,2 C 56 % 0 lf 1024,2 hPa 0,0 l/m 2 min 0 min 643 W/m 18,8 km/h (3 Bft)
16.06.2015 14:58 16,7 C 17,8 C 57 % 0 lf 1024,2 hPa 0,0 l/m 2 min 0 min 623 W/m 18,8 km/h (3 Bft)
16.06.2015 15:00 16,7 C 17,8 C 57 % 0 lf 1024,1 hPa 0,0 l/m 2 min 0 min 557 W/m 16,7 km/h (3 Bft)
16.06.2015 15:02 16,9 C 17,8 C 56 % 0 lf 1024,2 hPa 0,0 l/m 2 min 0 min 563 W/m 23,0 km/h (4 Bft)
16.06.2015 15:04 17,0 C 18,3 C 56 % 0 lf 1024,1 hPa 0,0 l/m 2 min 0 min 601 W/m 12,6 km/h (3 Bft)
16.06.2015 15:06 17,1 C 18,3 C 55 % 0 lf 1024,1 hPa 0,0 l/m 2 min 0 min 617 W/m 23,0 km/h (4 Bft)
16.06.2015 15:08 17,2 C 17,8 C 55 % 0 lf 1024,1 hPa 0,0 l/m 2 min 0 min 667 W/m 18,8 km/h (3 Bft)
16.06.2015 15:10 17,3 C 17,8 C 55 % 0 lf 1024,1 hPa 0,0 l/m 2 min 0 min 702 W/m 25,1 km/h (4 Bft)
16.06.2015 15:12 17,4 C 17,8 C 54 % 0 lf 1024,1 hPa 0,0 l/m 2 min 0 min 844 W/m 16,7 km/h (3 Bft)
16.06.2015 15:14 17,5 C 18,3 C 56 % 0 lf 1024,0 hPa 0,0 l/m 2 min 0 min 864 W/m 20,9 km/h (4 Bft)
16.06.2015 15:16 17,6 C 18,3 C 54 % 0 lf 1024,1 hPa 0,0 l/m 2 min 0 min 826 W/m 23,0 km/h (4 Bft)
16.06.2015 15:18 17,8 C 18,3 C 53 % 0 lf 1024,0 hPa 0,0 l/m 2 min 0 min 858 W/m 18,8 km/h (3 Bft)
16.06.2015 15:20 17,8 C 18,3 C 53 % 0 lf 1024,0 hPa 0,0 l/m 2 min 0 min 777 W/m 18,8 km/h (3 Bft)
16.06.2015 15:22 17,9 C 18,3 C 52 % 0 lf 1023,9 hPa 0,0 l/m 2 min 0 min 538 W/m 16,7 km/h (3 Bft)
16.06.2015 15:24 18,0 C 18,9 C 54 % 0 lf 1023,9 hPa 0,0 l/m 2 min 0 min 680 W/m 10,5 km/h (2 Bft)
16.06.2015 15:26 18,1 C 18,9 C 53 % 0 lf 1023,9 hPa 0,0 l/m 2 min 0 min 939 W/m 14,6 km/h (3 Bft)
16.06.2015 15:28 18,2 C 18,3 C 53 % 0 lf 1024,0 hPa 0,0 l/m 2 min 0 min 434 W/m 25,1 km/h (4 Bft)
16.06.2015 15:30 18,3 C 18,3 C 52 % 0 lf 1023,9 hPa 0,0 l/m 2 min 0 min 449 W/m 16,7 km/h (3 Bft)
16.06.2015 15:32 18,2 C 17,2 C 52 % 0 lf 1023,9 hPa 0,0 l/m 2 min 0 min 530 W/m 16,7 km/h (3 Bft)
16.06.2015 15:34 18,1 C 17,2 C 52 % 0 lf 1023,9 hPa 0,0 l/m 2 min 0 min 573 W/m 16,7 km/h (3 Bft)
16.06.2015 15:36 18,1 C 17,8 C 53 % 0 lf 1023,9 hPa 0,0 l/m 2 min 0 min 565 W/m 20,9 km/h (4 Bft)
16.06.2015 15:38 18,1 C 17,8 C 54 % 0 lf 1024,0 hPa 0,0 l/m 2 min 0 min 496 W/m 27,2 km/h (4 Bft)
16.06.2015 15:40 18,1 C 17,8 C 52 % 0 lf 1023,9 hPa 0,0 l/m 2 min 0 min 530 W/m 16,7 km/h (3 Bft)
16.06.2015 15:42 18,0 C 17,8 C 52 % 0 lf 1023,9 hPa 0,0 l/m 2 min 0 min 592 W/m 25,1 km/h (4 Bft)
16.06.2015 15:44 17,9 C 17,8 C 52 % 0 lf 1023,8 hPa 0,0 l/m 2 min 0 min 611 W/m 16,7 km/h (3 Bft)
16.06.2015 15:46 17,9 C 18,3 C 53 % 0 lf 1023,9 hPa 0,0 l/m 2 min 0 min 647 W/m 23,0 km/h (4 Bft)
16.06.2015 15:48 17,9 C 17,8 C 52 % 0 lf 1023,8 hPa 0,0 l/m 2 min 0 min 641 W/m 20,9 km/h (4 Bft)
16.06.2015 15:50 17,9 C 17,8 C 52 % 0 lf 1023,8 hPa 0,0 l/m 2 min 0 min 705 W/m 18,8 km/h (3 Bft)
16.06.2015 15:52 17,9 C 17,8 C 53 % 0 lf 1023,8 hPa 0,0 l/m 2 min 0 min 705 W/m 16,7 km/h (3 Bft)
16.06.2015 15:54 17,9 C 18,3 C 53 % 0 lf 1023,7 hPa 0,0 l/m 2 min 0 min 730 W/m 18,8 km/h (3 Bft)
16.06.2015 15:56 17,8 C 18,3 C 53 % 0 lf 1023,7 hPa 0,0 l/m 2 min 0 min 802 W/m 27,2 km/h (4 Bft)
16.06.2015 15:58 17,9 C 18,9 C 54 % 0 lf 1023,6 hPa 0,0 l/m 2 min 0 min 724 W/m 25,1 km/h (4 Bft)
16.06.2015 16:00 17,9 C 18,3 C 54 % 0 lf 1023,7 hPa 0,0 l/m 2 min 0 min 519 W/m 25,1 km/h (4 Bft)
16.06.2015 16:02 18,0 C 18,3 C 53 % 0 lf 1023,7 hPa 0,0 l/m 2 min 0 min 442 W/m 20,9 km/h (4 Bft)
16.06.2015 16:04 17,9 C 17,8 C 53 % 0 lf 1023,7 hPa 0,0 l/m 2 min 0 min 463 W/m 23,0 km/h (4 Bft)
16.06.2015 16:06 17,8 C 17,2 C 53 % 0 lf 1023,7 hPa 0,0 l/m 2 min 0 min 400 W/m 29,3 km/h (5 Bft)
16.06.2015 16:08 17,7 C 17,2 C 54 % 0 lf 1023,6 hPa 0,0 l/m 2 min 0 min 479 W/m 27,2 km/h (4 Bft)
16.06.2015 16:10 17,6 C 17,8 C 55 % 0 lf 1023,6 hPa 0,0 l/m 2 min 0 min 625 W/m 20,9 km/h (4 Bft)
16.06.2015 16:12 17,5 C 17,8 C 54 % 0 lf 1023,6 hPa 0,0 l/m 2 min 0 min 678 W/m 16,7 km/h (3 Bft)
16.06.2015 16:14 17,6 C 18,9 C 55 % 0 lf 1023,5 hPa 0,0 l/m 2 min 0 min 740 W/m 14,6 km/h (3 Bft)
16.06.2015 16:16 17,6 C 19,4 C 55 % 0 lf 1023,5 hPa 0,0 l/m 2 min 0 min 914 W/m 20,9 km/h (4 Bft)
16.06.2015 16:18 17,6 C 18,3 C 54 % 0 lf 1023,5 hPa 0,0 l/m 2 min 0 min 376 W/m 23,0 km/h (4 Bft)
16.06.2015 16:20 17,6 C 17,2 C 53 % 0 lf 1023,5 hPa 0,0 l/m 0 min 0 min 225 W/m 25,1 km/h (4 Bft)
16.06.2015 16:22 17,4 C 17,8 C 53 % 0 lf 1023,4 hPa 0,0 l/m 2 min 0 min 631 W/m 20,9 km/h (4 Bft)
16.06.2015 16:24 17,4 C 20,0 C 54 % 0 lf 1023,5 hPa 0,0 l/m 2 min 0 min 855 W/m 12,6 km/h (3 Bft)
16.06.2015 16:26 17,5 C 20,0 C 55 % 0 lf 1023,5 hPa 0,0 l/m 2 min 0 min 755 W/m 12,6 km/h (3 Bft)
16.06.2015 16:28 17,5 C 18,3 C 54 % 0 lf 1023,5 hPa 0,0 l/m 0 min 0 min 196 W/m 25,1 km/h (4 Bft)
16.06.2015 16:30 17,4 C 17,2 C 54 % 0 lf 1023,4 hPa 0,0 l/m 0 min 0 min 194 W/m 14,6 km/h (3 Bft)
16.06.2015 16:32 17,4 C 17,2 C 54 % 0 lf 1023,4 hPa 0,0 l/m 0 min 0 min 218 W/m 14,6 km/h (3 Bft)
16.06.2015 16:34 17,4 C 18,3 C 54 % 0 lf 1023,4 hPa 0,0 l/m 2 min 0 min 667 W/m 12,6 km/h (3 Bft)
16.06.2015 16:36 17,5 C 18,9 C 54 % 0 lf 1023,5 hPa 0,0 l/m 2 min 0 min 881 W/m 16,7 km/h (3 Bft)
16.06.2015 16:38 17,6 C 18,9 C 54 % 0 lf 1023,5 hPa 0,0 l/m 2 min 0 min 536 W/m 20,9 km/h (4 Bft)
16.06.2015 16:40 17,6 C 18,3 C 54 % 0 lf 1023,6 hPa 0,0 l/m 2 min 0 min 358 W/m 23,0 km/h (4 Bft)
16.06.2015 16:42 17,6 C 17,8 C 54 % 0 lf 1023,6 hPa 0,0 l/m 0 min 0 min 260 W/m 20,9 km/h (4 Bft)
16.06.2015 16:44 17,7 C 17,2 C 54 % 0 lf 1023,6 hPa 0,0 l/m 0 min 0 min 228 W/m 31,4 km/h (5 Bft)
16.06.2015 16:46 17,7 C 16,7 C 55 % 0 lf 1023,7 hPa 0,0 l/m 0 min 0 min 210 W/m 25,1 km/h (4 Bft)
16.06.2015 16:48 17,7 C 16,7 C 54 % 0 lf 1023,6 hPa 0,0 l/m 0 min 0 min 207 W/m 16,7 km/h (3 Bft)
16.06.2015 16:50 17,6 C 16,7 C 54 % 0 lf 1023,6 hPa 0,0 l/m 0 min 0 min 211 W/m 18,8 km/h (3 Bft)
16.06.2015 16:52 17,6 C 16,7 C 55 % 0 lf 1023,7 hPa 0,0 l/m 0 min 0 min 217 W/m 18,8 km/h (3 Bft)
16.06.2015 16:54 17,5 C 16,7 C 54 % 0 lf 1023,6 hPa 0,0 l/m 0 min 0 min 187 W/m 18,8 km/h (3 Bft)
16.06.2015 16:56 17,4 C 16,7 C 53 % 0 lf 1023,6 hPa 0,0 l/m 0 min 0 min 173 W/m 14,6 km/h (3 Bft)
16.06.2015 16:58 17,4 C 16,7 C 54 % 0 lf 1023,7 hPa 0,0 l/m 0 min 0 min 207 W/m 18,8 km/h (3 Bft)
16.06.2015 17:00 17,4 C 16,7 C 54 % 0 lf 1023,5 hPa 0,0 l/m 2 min 0 min 473 W/m 14,6 km/h (3 Bft)
16.06.2015 17:02 17,4 C 16,7 C 54 % 0 lf 1023,5 hPa 0,0 l/m 2 min 0 min 399 W/m 18,8 km/h (3 Bft)
16.06.2015 17:04 17,4 C 16,7 C 54 % 0 lf 1023,6 hPa 0,0 l/m 0 min 0 min 161 W/m 23,0 km/h (4 Bft)
16.06.2015 17:06 17,3 C 16,1 C 54 % 0 lf 1023,6 hPa 0,0 l/m 0 min 0 min 160 W/m 23,0 km/h (4 Bft)
16.06.2015 17:08 17,3 C 16,1 C 54 % 0 lf 1023,7 hPa 0,0 l/m 0 min 0 min 156 W/m 23,0 km/h (4 Bft)
16.06.2015 17:10 17,2 C 16,1 C 54 % 0 lf 1023,6 hPa 0,0 l/m 0 min 0 min 147 W/m 25,1 km/h (4 Bft)
16.06.2015 17:12 17,1 C 15,6 C 54 % 0 lf 1023,7 hPa 0,0 l/m 0 min 0 min 143 W/m 25,1 km/h (4 Bft)
16.06.2015 17:14 16,9 C 15,6 C 54 % 0 lf 1023,7 hPa 0,0 l/m 0 min 0 min 152 W/m 14,6 km/h (3 Bft)
16.06.2015 17:16 16,9 C 15,6 C 55 % 0 lf 1023,7 hPa 0,0 l/m 0 min 0 min 159 W/m 16,7 km/h (3 Bft)
16.06.2015 17:18 16,8 C 15,6 C 55 % 0 lf 1023,6 hPa 0,0 l/m 0 min 0 min 159 W/m 14,6 km/h (3 Bft)
16.06.2015 17:20 16,8 C 16,1 C 55 % 0 lf 1023,5 hPa 0,0 l/m 0 min 0 min 153 W/m 10,5 km/h (2 Bft)
16.06.2015 17:22 16,8 C 16,1 C 56 % 0 lf 1023,6 hPa 0,0 l/m 0 min 0 min 144 W/m 16,7 km/h (3 Bft)
16.06.2015 17:24 16,8 C 16,1 C 55 % 0 lf 1023,6 hPa 0,0 l/m 0 min 0 min 141 W/m 25,1 km/h (4 Bft)
16.06.2015 17:26 16,8 C 15,6 C 55 % 0 lf 1023,6 hPa 0,0 l/m 0 min 0 min 144 W/m 20,9 km/h (4 Bft)
16.06.2015 17:28 16,7 C 16,1 C 54 % 0 lf 1023,6 hPa 0,0 l/m 0 min 0 min 149 W/m 20,9 km/h (4 Bft)
16.06.2015 17:30 16,7 C 15,6 C 55 % 0 lf 1023,6 hPa 0,0 l/m 0 min 0 min 147 W/m 20,9 km/h (4 Bft)
16.06.2015 17:32 16,7 C 15,6 C 56 % 0 lf 1023,6 hPa 0,0 l/m 0 min 0 min 141 W/m 25,1 km/h (4 Bft)
16.06.2015 17:34 16,6 C 15,6 C 56 % 0 lf 1023,6 hPa 0,0 l/m 0 min 0 min 137 W/m 23,0 km/h (4 Bft)
16.06.2015 17:36 16,6 C 15,6 C 56 % 0 lf 1023,6 hPa 0,0 l/m 0 min 0 min 133 W/m 18,8 km/h (3 Bft)
16.06.2015 17:38 16,6 C 15,6 C 57 % 0 lf 1023,6 hPa 0,0 l/m 0 min 0 min 132 W/m 14,6 km/h (3 Bft)
16.06.2015 17:40 16,6 C 15,6 C 57 % 0 lf 1023,6 hPa 0,0 l/m 0 min 0 min 138 W/m 18,8 km/h (3 Bft)
16.06.2015 17:42 16,5 C 15,6 C 57 % 0 lf 1023,6 hPa 0,0 l/m 0 min 0 min 149 W/m 20,9 km/h (4 Bft)
16.06.2015 17:44 16,5 C 15,6 C 57 % 0 lf 1023,5 hPa 0,0 l/m 0 min 0 min 158 W/m 23,0 km/h (4 Bft)
16.06.2015 17:46 16,4 C 15,6 C 57 % 0 lf 1023,5 hPa 0,0 l/m 0 min 0 min 162 W/m 20,9 km/h (4 Bft)
16.06.2015 17:48 16,4 C 15,6 C 58 % 0 lf 1023,5 hPa 0,0 l/m 0 min 0 min 162 W/m 18,8 km/h (3 Bft)
16.06.2015 17:50 16,4 C 15,6 C 58 % 0 lf 1023,5 hPa 0,0 l/m 0 min 0 min 159 W/m 23,0 km/h (4 Bft)
16.06.2015 17:52 16,4 C 15,6 C 58 % 0 lf 1023,5 hPa 0,0 l/m 0 min 0 min 158 W/m 27,2 km/h (4 Bft)
16.06.2015 17:54 16,4 C 15,6 C 57 % 0 lf 1023,6 hPa 0,0 l/m 0 min 0 min 162 W/m 23,0 km/h (4 Bft)
16.06.2015 17:56 16,4 C 15,6 C 57 % 0 lf 1023,6 hPa 0,0 l/m 0 min 0 min 171 W/m 23,0 km/h (4 Bft)
16.06.2015 17:58 16,3 C 15,6 C 58 % 0 lf 1023,6 hPa 0,0 l/m 0 min 0 min 179 W/m 20,9 km/h (4 Bft)
16.06.2015 18:00 16,3 C 15,6 C 58 % 0 lf 1023,6 hPa 0,0 l/m 0 min 0 min 192 W/m 18,8 km/h (3 Bft)
16.06.2015 18:02 16,3 C 16,1 C 58 % 0 lf 1023,6 hPa 0,0 l/m 0 min 0 min 213 W/m 16,7 km/h (3 Bft)
16.06.2015 18:05 16,3 C 16,1 C 59 % 0 lf 1023,6 hPa 0,0 l/m 0 min 0 min 231 W/m 20,9 km/h (4 Bft)
16.06.2015 18:06 16,3 C 16,1 C 59 % 0 lf 1023,6 hPa 0,0 l/m 0 min 0 min 237 W/m 12,6 km/h (3 Bft)
16.06.2015 18:08 16,3 C 16,1 C 58 % 0 lf 1023,5 hPa 0,0 l/m 0 min 0 min 237 W/m 18,8 km/h (3 Bft)
16.06.2015 18:10 16,3 C 16,1 C 59 % 0 lf 1023,5 hPa 0,0 l/m 2 min 0 min 610 W/m 12,6 km/h (3 Bft)
16.06.2015 18:12 16,4 C 16,7 C 58 % 0 lf 1023,5 hPa 0,0 l/m 2 min 0 min 649 W/m 14,6 km/h (3 Bft)
16.06.2015 18:14 16,5 C 16,7 C 59 % 0 lf 1023,5 hPa 0,0 l/m 2 min 0 min 622 W/m 10,5 km/h (2 Bft)
16.06.2015 18:16 16,6 C 16,7 C 58 % 0 lf 1023,5 hPa 0,0 l/m 2 min 0 min 607 W/m 16,7 km/h (3 Bft)
16.06.2015 18:18 16,6 C 16,7 C 58 % 0 lf 1023,5 hPa 0,0 l/m 2 min 0 min 269 W/m 20,9 km/h (4 Bft)
16.06.2015 18:20 16,7 C 16,1 C 58 % 0 lf 1023,5 hPa 0,0 l/m 0 min 0 min 154 W/m 16,7 km/h (3 Bft)
16.06.2015 18:22 16,7 C 16,1 C 57 % 0 lf 1023,5 hPa 0,0 l/m 0 min 0 min 139 W/m 27,2 km/h (4 Bft)
16.06.2015 18:24 16,8 C 16,1 C 58 % 0 lf 1023,6 hPa 0,0 l/m 0 min 0 min 137 W/m 25,1 km/h (4 Bft)
16.06.2015 18:26 16,7 C 15,6 C 57 % 0 lf 1023,5 hPa 0,0 l/m 0 min 0 min 144 W/m 29,3 km/h (5 Bft)
16.06.2015 18:28 16,7 C 15,6 C 57 % 0 lf 1023,5 hPa 0,0 l/m 0 min 0 min 153 W/m 23,0 km/h (4 Bft)
16.06.2015 18:30 16,7 C 16,1 C 58 % 0 lf 1023,6 hPa 0,0 l/m 0 min 0 min 160 W/m 20,9 km/h (4 Bft)
16.06.2015 18:32 16,7 C 16,1 C 57 % 0 lf 1023,6 hPa 0,0 l/m 0 min 0 min 170 W/m 23,0 km/h (4 Bft)
16.06.2015 18:34 16,6 C 16,1 C 57 % 0 lf 1023,7 hPa 0,0 l/m 0 min 0 min 179 W/m 25,1 km/h (4 Bft)
16.06.2015 18:36 16,6 C 16,1 C 57 % 0 lf 1023,6 hPa 0,0 l/m 0 min 0 min 181 W/m 20,9 km/h (4 Bft)
16.06.2015 18:38 16,6 C 16,1 C 57 % 0 lf 1023,7 hPa 0,0 l/m 0 min 0 min 174 W/m 20,9 km/h (4 Bft)
16.06.2015 18:40 16,6 C 15,6 C 57 % 0 lf 1023,6 hPa 0,0 l/m 0 min 0 min 167 W/m 25,1 km/h (4 Bft)
16.06.2015 18:42 16,5 C 15,6 C 56 % 0 lf 1023,6 hPa 0,0 l/m 0 min 0 min 156 W/m 18,8 km/h (3 Bft)
16.06.2015 18:44 16,5 C 15,6 C 56 % 0 lf 1023,6 hPa 0,0 l/m 0 min 0 min 145 W/m 25,1 km/h (4 Bft)
16.06.2015 18:46 16,4 C 15,0 C 56 % 0 lf 1023,7 hPa 0,0 l/m 0 min 0 min 145 W/m 23,0 km/h (4 Bft)
16.06.2015 18:48 16,4 C 15,0 C 57 % 0 lf 1023,7 hPa 0,0 l/m 0 min 0 min 144 W/m 20,9 km/h (4 Bft)
16.06.2015 18:50 16,4 C 15,6 C 57 % 0 lf 1023,8 hPa 0,0 l/m 0 min 0 min 155 W/m 18,8 km/h (3 Bft)
16.06.2015 18:52 16,4 C 15,6 C 58 % 0 lf 1023,6 hPa 0,0 l/m 0 min 0 min 179 W/m 20,9 km/h (4 Bft)
16.06.2015 18:54 16,3 C 15,6 C 58 % 0 lf 1023,7 hPa 0,0 l/m 0 min 0 min 160 W/m 23,0 km/h (4 Bft)
16.06.2015 18:56 16,3 C 15,6 C 59 % 0 lf 1023,8 hPa 0,0 l/m 0 min 0 min 151 W/m 29,3 km/h (5 Bft)
16.06.2015 18:58 16,3 C 15,6 C 59 % 0 lf 1023,7 hPa 0,0 l/m 0 min 0 min 150 W/m 27,2 km/h (4 Bft)
16.06.2015 19:00 16,2 C 15,0 C 59 % 0 lf 1023,8 hPa 0,0 l/m 0 min 0 min 142 W/m 27,2 km/h (4 Bft)
16.06.2015 19:02 16,2 C 15,0 C 59 % 0 lf 1023,8 hPa 0,0 l/m 0 min 0 min 143 W/m 29,3 km/h (5 Bft)
16.06.2015 19:04 16,2 C 15,0 C 59 % 0 lf 1023,9 hPa 0,0 l/m 0 min 0 min 143 W/m 29,3 km/h (5 Bft)
16.06.2015 19:06 16,1 C 15,0 C 59 % 0 lf 1023,9 hPa 0,0 l/m 0 min 0 min 136 W/m 20,9 km/h (4 Bft)
16.06.2015 19:08 16,1 C 15,0 C 60 % 0 lf 1023,9 hPa 0,0 l/m 0 min 0 min 129 W/m 27,2 km/h (4 Bft)
16.06.2015 19:10 16,1 C 15,0 C 60 % 0 lf 1023,9 hPa 0,0 l/m 0 min 0 min 123 W/m 20,9 km/h (4 Bft)
16.06.2015 19:12 16,1 C 15,0 C 60 % 0 lf 1023,9 hPa 0,0 l/m 0 min 0 min 114 W/m 18,8 km/h (3 Bft)
16.06.2015 19:14 16,0 C 15,0 C 60 % 0 lf 1023,8 hPa 0,0 l/m 0 min 0 min 105 W/m 27,2 km/h (4 Bft)
16.06.2015 19:16 16,0 C 15,0 C 60 % 0 lf 1023,9 hPa 0,0 l/m 0 min 0 min 96 W/m 25,1 km/h (4 Bft)
16.06.2015 19:18 15,9 C 15,0 C 60 % 0 lf 1023,9 hPa 0,0 l/m 0 min 0 min 92 W/m 16,7 km/h (3 Bft)
16.06.2015 19:20 15,9 C 15,0 C 61 % 0 lf 1023,9 hPa 0,0 l/m 0 min 0 min 91 W/m 14,6 km/h (3 Bft)
16.06.2015 19:22 15,9 C 15,0 C 61 % 0 lf 1024,0 hPa 0,0 l/m 0 min 0 min 92 W/m 20,9 km/h (4 Bft)
16.06.2015 19:24 15,9 C 15,0 C 61 % 0 lf 1024,0 hPa 0,0 l/m 0 min 0 min 92 W/m 16,7 km/h (3 Bft)
16.06.2015 19:26 15,8 C 15,0 C 61 % 0 lf 1024,0 hPa 0,0 l/m 0 min 0 min 89 W/m 16,7 km/h (3 Bft)
16.06.2015 19:28 15,8 C 15,0 C 61 % 0 lf 1024,0 hPa 0,0 l/m 0 min 0 min 84 W/m 20,9 km/h (4 Bft)
16.06.2015 19:30 15,8 C 15,0 C 62 % 0 lf 1024,1 hPa 0,0 l/m 0 min 0 min 79 W/m 23,0 km/h (4 Bft)
16.06.2015 19:32 15,8 C 14,4 C 62 % 0 lf 1024,1 hPa 0,0 l/m 0 min 0 min 76 W/m 20,9 km/h (4 Bft)
16.06.2015 19:34 15,7 C 14,4 C 62 % 0 lf 1024,1 hPa 0,0 l/m 0 min 0 min 69 W/m 29,3 km/h (5 Bft)
16.06.2015 19:36 15,7 C 14,4 C 62 % 0 lf 1024,1 hPa 0,0 l/m 0 min 0 min 67 W/m 18,8 km/h (3 Bft)
16.06.2015 19:38 15,7 C 14,4 C 62 % 0 lf 1024,1 hPa 0,0 l/m 0 min 0 min 69 W/m 16,7 km/h (3 Bft)
16.06.2015 19:40 15,7 C 14,4 C 62 % 0 lf 1024,1 hPa 0,0 l/m 0 min 0 min 70 W/m 20,9 km/h (4 Bft)
16.06.2015 19:42 15,6 C 14,4 C 62 % 0 lf 1024,1 hPa 0,0 l/m 0 min 0 min 69 W/m 18,8 km/h (3 Bft)
16.06.2015 19:44 15,6 C 14,4 C 62 % 0 lf 1024,2 hPa 0,0 l/m 0 min 0 min 67 W/m 16,7 km/h (3 Bft)
16.06.2015 19:46 15,6 C 14,4 C 63 % 0 lf 1024,2 hPa 0,0 l/m 0 min 0 min 65 W/m 14,6 km/h (3 Bft)
16.06.2015 19:48 15,6 C 14,4 C 63 % 0 lf 1024,2 hPa 0,0 l/m 0 min 0 min 62 W/m 23,0 km/h (4 Bft)
16.06.2015 19:50 15,6 C 14,4 C 63 % 0 lf 1024,2 hPa 0,0 l/m 0 min 0 min 60 W/m 23,0 km/h (4 Bft)
16.06.2015 19:52 15,5 C 14,4 C 63 % 0 lf 1024,2 hPa 0,0 l/m 0 min 0 min 60 W/m 20,9 km/h (4 Bft)
16.06.2015 19:54 15,5 C 14,4 C 63 % 0 lf 1024,2 hPa 0,0 l/m 0 min 0 min 62 W/m 25,1 km/h (4 Bft)
16.06.2015 19:56 15,4 C 14,4 C 64 % 0 lf 1024,3 hPa 0,0 l/m 0 min 0 min 63 W/m 31,4 km/h (5 Bft)
16.06.2015 19:58 15,4 C 14,4 C 64 % 0 lf 1024,2 hPa 0,0 l/m 0 min 0 min 63 W/m 27,2 km/h (4 Bft)
16.06.2015 20:00 15,4 C 14,4 C 64 % 0 lf 1024,2 hPa 0,0 l/m 0 min 0 min 63 W/m 27,2 km/h (4 Bft)
16.06.2015 20:02 15,3 C 14,4 C 64 % 0 lf 1024,2 hPa 0,0 l/m 0 min 0 min 61 W/m 25,1 km/h (4 Bft)
16.06.2015 20:04 15,3 C 14,4 C 64 % 0 lf 1024,2 hPa 0,0 l/m 0 min 0 min 58 W/m 20,9 km/h (4 Bft)
16.06.2015 20:06 15,3 C 14,4 C 63 % 0 lf 1024,2 hPa 0,0 l/m 0 min 0 min 56 W/m 16,7 km/h (3 Bft)
16.06.2015 20:08 15,2 C 14,4 C 63 % 0 lf 1024,3 hPa 0,0 l/m 0 min 0 min 54 W/m 16,7 km/h (3 Bft)
16.06.2015 20:10 15,2 C 14,4 C 63 % 0 lf 1024,3 hPa 0,0 l/m 0 min 0 min 53 W/m 25,1 km/h (4 Bft)
16.06.2015 20:12 15,2 C 14,4 C 63 % 0 lf 1024,3 hPa 0,0 l/m 0 min 0 min 51 W/m 16,7 km/h (3 Bft)
16.06.2015 20:14 15,2 C 14,4 C 63 % 0 lf 1024,3 hPa 0,0 l/m 0 min 0 min 49 W/m 18,8 km/h (3 Bft)
16.06.2015 20:16 15,2 C 13,9 C 63 % 0 lf 1024,3 hPa 0,0 l/m 0 min 0 min 49 W/m 16,7 km/h (3 Bft)
16.06.2015 20:18 15,2 C 13,9 C 63 % 0 lf 1024,3 hPa 0,0 l/m 0 min 0 min 49 W/m 10,5 km/h (2 Bft)
16.06.2015 20:20 15,2 C 13,9 C 63 % 0 lf 1024,3 hPa 0,0 l/m 0 min 0 min 49 W/m 14,6 km/h (3 Bft)
16.06.2015 20:22 15,2 C 13,9 C 64 % 0 lf 1024,3 hPa 0,0 l/m 0 min 0 min 46 W/m 16,7 km/h (3 Bft)
16.06.2015 20:24 15,1 C 13,9 C 63 % 0 lf 1024,3 hPa 0,0 l/m 0 min 0 min 45 W/m 16,7 km/h (3 Bft)
16.06.2015 20:26 15,1 C 13,9 C 63 % 0 lf 1024,4 hPa 0,0 l/m 0 min 0 min 43 W/m 20,9 km/h (4 Bft)
16.06.2015 20:28 15,1 C 13,9 C 62 % 0 lf 1024,3 hPa 0,0 l/m 0 min 0 min 41 W/m 25,1 km/h (4 Bft)
16.06.2015 20:30 15,1 C 13,9 C 62 % 0 lf 1024,5 hPa 0,0 l/m 0 min 0 min 38 W/m 20,9 km/h (4 Bft)
16.06.2015 20:32 15,0 C 13,9 C 62 % 0 lf 1024,4 hPa 0,0 l/m 0 min 0 min 35 W/m 23,0 km/h (4 Bft)
16.06.2015 20:34 15,0 C 13,9 C 63 % 0 lf 1024,5 hPa 0,0 l/m 0 min 0 min 33 W/m 20,9 km/h (4 Bft)
16.06.2015 20:36 14,9 C 13,9 C 63 % 0 lf 1024,5 hPa 0,0 l/m 0 min 0 min 31 W/m 23,0 km/h (4 Bft)
16.06.2015 20:38 14,9 C 13,9 C 63 % 0 lf 1024,4 hPa 0,0 l/m 0 min 0 min 30 W/m 18,8 km/h (3 Bft)
16.06.2015 20:40 14,9 C 13,9 C 63 % 0 lf 1024,4 hPa 0,0 l/m 0 min 0 min 28 W/m 12,6 km/h (3 Bft)
16.06.2015 20:42 14,9 C 13,9 C 63 % 0 lf 1024,3 hPa 0,0 l/m 0 min 0 min 28 W/m 16,7 km/h (3 Bft)
16.06.2015 20:44 14,9 C 13,9 C 63 % 0 lf 1024,3 hPa 0,0 l/m 0 min 0 min 29 W/m 16,7 km/h (3 Bft)
16.06.2015 20:46 14,9 C 13,9 C 64 % 0 lf 1024,2 hPa 0,0 l/m 0 min 0 min 30 W/m 14,6 km/h (3 Bft)
16.06.2015 20:48 14,8 C 13,9 C 64 % 0 lf 1024,3 hPa 0,0 l/m 0 min 0 min 28 W/m 10,5 km/h (2 Bft)
16.06.2015 20:50 14,8 C 13,9 C 64 % 0 lf 1024,3 hPa 0,0 l/m 0 min 0 min 28 W/m 14,6 km/h (3 Bft)
16.06.2015 20:52 14,8 C 13,9 C 63 % 0 lf 1024,4 hPa 0,0 l/m 0 min 0 min 27 W/m 16,7 km/h (3 Bft)
16.06.2015 20:54 14,8 C 13,9 C 63 % 0 lf 1024,3 hPa 0,0 l/m 0 min 0 min 28 W/m 16,7 km/h (3 Bft)
16.06.2015 20:56 14,7 C 13,3 C 63 % 0 lf 1024,2 hPa 0,0 l/m 0 min 0 min 28 W/m 16,7 km/h (3 Bft)
16.06.2015 20:58 14,7 C 13,3 C 63 % 0 lf 1024,3 hPa 0,0 l/m 0 min 0 min 28 W/m 16,7 km/h (3 Bft)
16.06.2015 21:00 14,7 C 13,3 C 63 % 0 lf 1024,3 hPa 0,0 l/m 0 min 0 min 27 W/m 16,7 km/h (3 Bft)
16.06.2015 21:02 14,7 C 13,3 C 63 % 0 lf 1024,3 hPa 0,0 l/m 0 min 0 min 26 W/m 16,7 km/h (3 Bft)
16.06.2015 21:04 14,7 C 13,3 C 63 % 0 lf 1024,3 hPa 0,0 l/m 0 min 0 min 26 W/m 16,7 km/h (3 Bft)
16.06.2015 21:06 14,6 C 13,3 C 63 % 0 lf 1024,4 hPa 0,0 l/m 0 min 0 min 25 W/m 16,7 km/h (3 Bft)
16.06.2015 21:08 14,6 C 13,3 C 63 % 0 lf 1024,4 hPa 0,0 l/m 0 min 0 min 23 W/m 14,6 km/h (3 Bft)
16.06.2015 21:10 14,6 C 13,3 C 63 % 0 lf 1024,4 hPa 0,0 l/m 0 min 0 min 23 W/m 14,6 km/h (3 Bft)
16.06.2015 21:12 14,6 C 13,3 C 64 % 0 lf 1024,3 hPa 0,0 l/m 0 min 0 min 21 W/m 14,6 km/h (3 Bft)
16.06.2015 21:14 14,6 C 13,3 C 64 % 0 lf 1024,4 hPa 0,0 l/m 0 min 0 min 20 W/m 12,6 km/h (3 Bft)
16.06.2015 21:16 14,6 C 13,3 C 64 % 0 lf 1024,4 hPa 0,0 l/m 0 min 0 min 19 W/m 12,6 km/h (3 Bft)
16.06.2015 21:18 14,5 C 13,3 C 64 % 0 lf 1024,4 hPa 0,0 l/m 0 min 0 min 21 W/m 10,5 km/h (2 Bft)
16.06.2015 21:20 14,5 C 13,3 C 65 % 0 lf 1024,4 hPa 0,0 l/m 0 min 0 min 21 W/m 12,6 km/h (3 Bft)
16.06.2015 21:22 14,5 C 13,3 C 65 % 0 lf 1024,5 hPa 0,0 l/m 0 min 0 min 19 W/m 10,5 km/h (2 Bft)
16.06.2015 21:24 14,4 C 13,3 C 65 % 0 lf 1024,4 hPa 0,0 l/m 0 min 0 min 19 W/m 12,6 km/h (3 Bft)
16.06.2015 21:26 14,4 C 13,3 C 65 % 0 lf 1024,5 hPa 0,0 l/m 0 min 0 min 18 W/m 14,6 km/h (3 Bft)
16.06.2015 21:28 14,4 C 13,3 C 65 % 0 lf 1024,4 hPa 0,0 l/m 0 min 0 min 16 W/m 20,9 km/h (4 Bft)
16.06.2015 21:30 14,4 C 13,3 C 65 % 0 lf 1024,5 hPa 0,0 l/m 0 min 0 min 15 W/m 14,6 km/h (3 Bft)
16.06.2015 21:32 14,4 C 13,3 C 65 % 0 lf 1024,5 hPa 0,0 l/m 0 min 0 min 14 W/m 16,7 km/h (3 Bft)
16.06.2015 21:34 14,4 C 13,3 C 65 % 0 lf 1024,5 hPa 0,0 l/m 0 min 0 min 13 W/m 14,6 km/h (3 Bft)
16.06.2015 21:36 14,4 C 13,3 C 65 % 0 lf 1024,5 hPa 0,0 l/m 0 min 0 min 12 W/m 18,8 km/h (3 Bft)
16.06.2015 21:38 14,3 C 13,3 C 65 % 0 lf 1024,6 hPa 0,0 l/m 0 min 0 min 11 W/m 14,6 km/h (3 Bft)
16.06.2015 21:40 14,3 C 13,3 C 65 % 0 lf 1024,6 hPa 0,0 l/m 0 min 0 min 10 W/m 14,6 km/h (3 Bft)
16.06.2015 21:42 14,3 C 13,3 C 64 % 0 lf 1024,6 hPa 0,0 l/m 0 min 0 min 8 W/m 12,6 km/h (3 Bft)
16.06.2015 21:44 14,3 C 13,3 C 64 % 0 lf 1024,6 hPa 0,0 l/m 0 min 0 min 7 W/m 16,7 km/h (3 Bft)
16.06.2015 21:46 14,3 C 13,3 C 64 % 0 lf 1024,6 hPa 0,0 l/m 0 min 0 min 6 W/m 12,6 km/h (3 Bft)
16.06.2015 21:48 14,2 C 12,8 C 65 % 0 lf 1024,6 hPa 0,0 l/m 0 min 0 min 5 W/m 14,6 km/h (3 Bft)
16.06.2015 21:50 14,2 C 12,8 C 65 % 0 lf 1024,6 hPa 0,0 l/m 0 min 0 min 5 W/m 10,5 km/h (2 Bft)
16.06.2015 21:52 14,2 C 12,8 C 65 % 0 lf 1024,7 hPa 0,0 l/m 0 min 0 min 5 W/m 12,6 km/h (3 Bft)
16.06.2015 21:54 14,2 C 12,8 C 65 % 0 lf 1024,7 hPa 0,0 l/m 0 min 0 min 0 W/m 10,5 km/h (2 Bft)
16.06.2015 21:56 14,2 C 12,8 C 65 % 0 lf 1024,7 hPa 0,0 l/m 0 min 0 min 0 W/m 10,5 km/h (2 Bft)
16.06.2015 21:58 14,2 C 12,8 C 65 % 0 lf 1024,7 hPa 0,0 l/m 0 min 0 min 0 W/m 10,5 km/h (2 Bft)
16.06.2015 22:00 14,2 C 12,8 C 65 % 0 lf 1024,7 hPa 0,0 l/m 0 min 0 min 0 W/m 14,6 km/h (3 Bft)
16.06.2015 22:02 14,2 C 12,8 C 65 % 0 lf 1024,7 hPa 0,0 l/m 0 min 0 min 0 W/m 12,6 km/h (3 Bft)
16.06.2015 22:04 14,2 C 12,8 C 65 % 0 lf 1024,8 hPa 0,0 l/m 0 min 0 min 0 W/m 8,4 km/h (2 Bft)
16.06.2015 22:06 14,2 C 12,8 C 65 % 0 lf 1024,9 hPa 0,0 l/m 0 min 0 min 0 W/m 12,6 km/h (3 Bft)
16.06.2015 22:08 14,1 C 12,8 C 65 % 0 lf 1024,9 hPa 0,0 l/m 0 min 0 min 0 W/m 10,5 km/h (2 Bft)
16.06.2015 22:10 14,1 C 12,8 C 65 % 0 lf 1024,9 hPa 0,0 l/m 0 min 0 min 0 W/m 12,6 km/h (3 Bft)
16.06.2015 22:12 14,1 C 12,8 C 65 % 0 lf 1024,9 hPa 0,0 l/m 0 min 0 min 0 W/m 10,5 km/h (2 Bft)
16.06.2015 22:14 14,0 C 12,8 C 65 % 0 lf 1024,9 hPa 0,0 l/m 0 min 0 min 0 W/m 10,5 km/h (2 Bft)
16.06.2015 22:16 13,9 C 12,2 C 65 % 0 lf 1024,9 hPa 0,0 l/m 0 min 0 min 0 W/m 10,5 km/h (2 Bft)
16.06.2015 22:18 13,9 C 12,2 C 65 % 0 lf 1025,0 hPa 0,0 l/m 0 min 0 min 0 W/m 10,5 km/h (2 Bft)
16.06.2015 22:20 13,9 C 12,2 C 66 % 0 lf 1024,9 hPa 0,0 l/m 0 min 0 min 0 W/m 8,4 km/h (2 Bft)
16.06.2015 22:22 13,9 C 12,2 C 66 % 0 lf 1024,9 hPa 0,0 l/m 0 min 0 min 0 W/m 10,5 km/h (2 Bft)
16.06.2015 22:24 13,8 C 12,2 C 66 % 0 lf 1024,9 hPa 0,0 l/m 0 min 0 min 0 W/m 10,5 km/h (2 Bft)
16.06.2015 22:26 13,8 C 12,2 C 66 % 0 lf 1024,9 hPa 0,0 l/m 0 min 0 min 0 W/m 10,5 km/h (2 Bft)
16.06.2015 22:28 13,8 C 12,2 C 66 % 0 lf 1024,9 hPa 0,0 l/m 0 min 0 min 0 W/m 8,4 km/h (2 Bft)
16.06.2015 22:30 13,7 C 12,2 C 66 % 0 lf 1024,8 hPa 0,0 l/m 0 min 0 min 0 W/m 8,4 km/h (2 Bft)
16.06.2015 22:32 13,7 C 12,2 C 66 % 0 lf 1024,8 hPa 0,0 l/m 0 min 0 min 0 W/m 8,4 km/h (2 Bft)
16.06.2015 22:34 13,7 C 12,2 C 66 % 0 lf 1024,8 hPa 0,0 l/m 0 min 0 min 0 W/m 6,3 km/h (2 Bft)
16.06.2015 22:36 13,6 C 11,7 C 66 % 0 lf 1024,9 hPa 0,0 l/m 0 min 0 min 0 W/m 6,3 km/h (2 Bft)
16.06.2015 22:38 13,6 C 11,7 C 67 % 0 lf 1024,8 hPa 0,0 l/m 0 min 0 min 0 W/m 8,4 km/h (2 Bft)
16.06.2015 22:40 13,6 C 11,7 C 67 % 0 lf 1024,8 hPa 0,0 l/m 0 min 0 min 0 W/m 6,3 km/h (2 Bft)
16.06.2015 22:42 13,6 C 11,7 C 67 % 0 lf 1024,8 hPa 0,0 l/m 0 min 0 min 0 W/m 6,3 km/h (2 Bft)
16.06.2015 22:44 13,5 C 11,7 C 67 % 0 lf 1024,8 hPa 0,0 l/m 0 min 0 min 0 W/m 6,3 km/h (2 Bft)
16.06.2015 22:46 13,4 C 11,7 C 67 % 0 lf 1024,8 hPa 0,0 l/m 0 min 0 min 0 W/m 6,3 km/h (2 Bft)
16.06.2015 22:48 13,4 C 11,1 C 67 % 0 lf 1024,8 hPa 0,0 l/m 0 min 0 min 0 W/m 6,3 km/h (2 Bft)
16.06.2015 22:50 13,4 C 11,1 C 67 % 0 lf 1024,8 hPa 0,0 l/m 0 min 0 min 0 W/m 6,3 km/h (2 Bft)
16.06.2015 22:52 13,4 C 10,6 C 67 % 0 lf 1024,8 hPa 0,0 l/m 0 min 0 min 0 W/m 4,2 km/h (1 Bft)
16.06.2015 22:54 13,3 C 10,6 C 67 % 0 lf 1024,9 hPa 0,0 l/m 0 min 0 min 0 W/m 4,2 km/h (1 Bft)
16.06.2015 22:56 13,3 C 10,6 C 67 % 0 lf 1024,8 hPa 0,0 l/m 0 min 0 min 0 W/m 4,2 km/h (1 Bft)
16.06.2015 22:58 13,2 C 10,0 C 67 % 0 lf 1024,8 hPa 0,0 l/m 0 min 0 min 0 W/m 4,2 km/h (1 Bft)
16.06.2015 23:00 13,2 C 10,0 C 68 % 0 lf 1024,9 hPa 0,0 l/m 0 min 0 min 0 W/m 4,2 km/h (1 Bft)
16.06.2015 23:02 13,1 C 10,0 C 68 % 0 lf 1024,9 hPa 0,0 l/m 0 min 0 min 0 W/m 2,1 km/h (1 Bft)
16.06.2015 23:04 13,1 C 10,0 C 68 % 0 lf 1024,9 hPa 0,0 l/m 0 min 0 min 0 W/m 4,2 km/h (1 Bft)
16.06.2015 23:06 13,0 C 10,0 C 68 % 0 lf 1024,9 hPa 0,0 l/m 0 min 0 min 0 W/m 4,2 km/h (1 Bft)
16.06.2015 23:08 12,9 C 10,0 C 68 % 0 lf 1024,9 hPa 0,0 l/m 0 min 0 min 0 W/m 2,1 km/h (1 Bft)
16.06.2015 23:10 12,9 C 10,0 C 68 % 0 lf 1024,9 hPa 0,0 l/m 0 min 0 min 0 W/m 2,1 km/h (1 Bft)
16.06.2015 23:12 12,8 C 9,4 C 69 % 0 lf 1024,9 hPa 0,0 l/m 0 min 0 min 0 W/m 4,2 km/h (1 Bft)
16.06.2015 23:14 12,8 C 9,4 C 69 % 0 lf 1024,9 hPa 0,0 l/m 0 min 0 min 0 W/m 4,2 km/h (1 Bft)
16.06.2015 23:16 12,7 C 9,4 C 69 % 0 lf 1025,0 hPa 0,0 l/m 0 min 0 min 0 W/m 2,1 km/h (1 Bft)
16.06.2015 23:18 12,7 C 9,4 C 69 % 0 lf 1024,9 hPa 0,0 l/m 0 min 0 min 0 W/m 2,1 km/h (1 Bft)
16.06.2015 23:20 12,6 C 9,4 C 69 % 0 lf 1024,9 hPa 0,0 l/m 0 min 0 min 0 W/m 2,1 km/h (1 Bft)
16.06.2015 23:22 12,6 C 9,4 C 70 % 0 lf 1025,0 hPa 0,0 l/m 0 min 0 min 0 W/m 2,1 km/h (1 Bft)
16.06.2015 23:24 12,5 C 9,4 C 70 % 0 lf 1025,0 hPa 0,0 l/m 0 min 0 min 0 W/m 2,1 km/h (1 Bft)
16.06.2015 23:26 12,4 C 9,4 C 70 % 0 lf 1025,1 hPa 0,0 l/m 0 min 0 min 0 W/m 2,1 km/h (1 Bft)
16.06.2015 23:28 12,3 C 9,4 C 70 % 0 lf 1025,1 hPa 0,0 l/m 0 min 0 min 0 W/m 2,1 km/h (1 Bft)
16.06.2015 23:30 12,3 C 9,4 C 70 % 0 lf 1025,0 hPa 0,0 l/m 0 min 0 min 0 W/m 2,1 km/h (1 Bft)
16.06.2015 23:32 12,2 C 9,4 C 71 % 0 lf 1025,1 hPa 0,0 l/m 0 min 0 min 0 W/m 2,1 km/h (1 Bft)
16.06.2015 23:34 12,2 C 8,9 C 71 % 0 lf 1025,1 hPa 0,0 l/m 0 min 0 min 0 W/m 2,1 km/h (1 Bft)
16.06.2015 23:36 12,1 C 8,9 C 71 % 0 lf 1025,1 hPa 0,0 l/m 0 min 0 min 0 W/m 2,1 km/h (1 Bft)
16.06.2015 23:38 12,1 C 8,9 C 71 % 0 lf 1025,1 hPa 0,0 l/m 0 min 0 min 0 W/m 2,1 km/h (1 Bft)
16.06.2015 23:40 12,0 C 8,9 C 71 % 0 lf 1025,1 hPa 0,0 l/m 0 min 0 min 0 W/m 2,1 km/h (1 Bft)
16.06.2015 23:42 11,9 C 8,9 C 71 % 0 lf 1025,1 hPa 0,0 l/m 0 min 0 min 0 W/m 2,1 km/h (1 Bft)
16.06.2015 23:44 11,9 C 8,9 C 72 % 0 lf 1025,1 hPa 0,0 l/m 0 min 0 min 0 W/m 2,1 km/h (1 Bft)
16.06.2015 23:46 11,8 C 8,9 C 72 % 0 lf 1025,1 hPa 0,0 l/m 0 min 0 min 0 W/m 0,0 km/h (0 Bft)
16.06.2015 23:48 11,7 C 8,9 C 72 % 0 lf 1025,1 hPa 0,0 l/m 0 min 0 min 0 W/m 0,0 km/h (0 Bft)
16.06.2015 23:50 11,7 C 8,9 C 72 % 0 lf 1025,1 hPa 0,0 l/m 0 min 0 min 0 W/m 2,1 km/h (1 Bft)
16.06.2015 23:52 11,6 C 8,9 C 72 % 0 lf 1025,2 hPa 0,0 l/m 0 min 0 min 0 W/m 2,1 km/h (1 Bft)
16.06.2015 23:54 11,6 C 8,3 C 73 % 0 lf 1025,3 hPa 0,0 l/m 0 min 0 min 0 W/m 2,1 km/h (1 Bft)
16.06.2015 23:56 11,5 C 8,3 C 73 % 0 lf 1025,2 hPa 0,0 l/m 0 min 0 min 0 W/m 2,1 km/h (1 Bft)
16.06.2015 23:58 11,4 C 8,3 C 73 % 0 lf 1025,3 hPa 0,0 l/m 0 min 0 min 0 W/m 2,1 km/h (1 Bft)
_ Min-Zeit 06:00 04:54 15:22 00:00 00:00 - - - - 23:46
Minimum _ 7,9 C 6,7 C 52 % 0 lf 1021,8 hPa - - - - 0,0 km/h (0 Bft)
_ Max-Zeit 15:30 16:24 06:32 13:18 23:54 00:00 06:02 00:00 15:26 16:44
Maximum _ 18,3 C 20,0 C 84 % 4 lf 1025,3 hPa 0,0 l/m 2 min 0 min 939 W/m 31,4 km/h
O-NO (5 Bft)
Durchschnitt _ 13,3 C 12,5 C 67 % 0 lf 1023,7 hPa #0,0 l/m #7:54 h #0 min. 291 W/m 15,1 km/h (3 Bft)
© 2015 W. Hausmann